ECMWFFLT2_850_spd_054.txt.gz
Wind_Speed
22 21 21 21 21 22 22 21 20 20 21 21 23 24 25 26 27 27 27 28 29 30 32 33 33 32 31 30 30 32 34 34 33 30 29 31 30 30 33 37 42 44 43 43 43 45 46 45 40 35 31 26
25 23 22 22 23 23 23 22 21 21 21 21 23 24 25 26 26 27 28 29 29 30 32 33 33 33 32 30 29 30 32 33 32 31 28 29 30 30 33 36 39 40 38 39 41 42 44 45 43 38 33 30
29 26 25 25 24 25 24 23 22 22 22 22 23 25 25 26 27 28 29 29 30 31 32 32 32 32 32 31 29 29 31 32 31 31 30 29 30 32 33 35 36 36 35 35 37 40 41 43 44 40 36 34
32 30 28 27 26 26 25 24 23 23 23 24 25 25 26 26 27 28 29 30 30 31 32 32 32 31 31 31 30 28 30 31 29 29 30 29 30 33 34 33 33 33 33 34 35 37 40 41 42 42 40 36
34 33 32 29 28 27 26 25 24 23 23 25 26 26 26 26 27 28 29 30 31 31 32 32 31 30 30 30 29 28 28 29 27 27 29 29 29 32 34 33 32 32 32 33 33 34 37 39 40 41 42 40
34 35 35 33 30 28 27 26 25 24 25 26 26 27 26 27 28 29 29 30 31 31 31 32 31 30 29 29 29 28 28 27 26 26 28 29 29 30 33 34 32 32 32 32 33 33 33 35 37 38 42 43
34 35 36 36 33 31 30 28 28 27 27 27 27 27 28 28 29 30 30 31 31 31 31 32 32 30 29 30 30 29 28 26 25 25 26 28 29 29 31 33 32 31 32 32 33 33 32 32 34 36 39 44
34 35 36 37 36 34 32 30 30 30 29 29 29 28 28 29 30 31 31 32 32 32 31 31 32 31 30 30 31 31 29 27 26 25 25 27 29 29 29 31 31 30 30 31 32 33 32 31 32 33 36 42
34 34 35 36 37 36 33 32 31 31 31 30 29 28 28 28 30 31 32 33 32 31 30 30 30 30 29 29 30 31 30 28 26 25 25 26 28 29 29 29 30 29 28 29 31 32 32 31 31 32 33 38
34 34 35 35 37 37 35 33 32 32 31 31 30 29 28 28 29 31 32 33 33 32 30 29 28 28 28 28 29 28 28 29 27 24 24 26 28 29 28 28 29 28 27 28 29 30 31 31 31 31 31 34
34 34 35 35 36 37 36 35 33 33 32 32 30 29 28 28 29 30 31 32 32 32 31 29 27 27 27 27 27 26 26 29 29 25 24 26 28 29 29 27 28 28 26 26 27 28 29 30 30 30 30 32
34 34 35 35 36 38 38 36 35 34 33 33 31 29 28 28 29 30 31 32 32 31 31 29 28 27 26 26 25 26 26 26 28 26 24 25 27 30 30 28 27 27 27 25 26 27 28 29 30 30 30 31
35 35 35 35 36 37 38 37 36 35 34 34 32 30 29 28 29 30 31 31 31 31 31 29 28 27 25 26 25 25 25 25 26 26 25 25 26 29 31 30 27 26 27 25 25 26 27 28 29 29 30 30
36 35 35 36 37 37 38 38 37 36 35 34 33 30 29 28 29 29 30 31 30 29 30 30 29 27 25 26 26 25 25 25 25 25 25 25 26 29 30 31 29 26 27 26 25 26 27 28 28 29 30 30
36 36 36 36 38 38 39 38 37 36 35 35 33 31 29 28 28 28 29 30 30 29 29 29 28 27 26 26 26 26 26 25 26 26 26 26 26 29 31 31 32 29 27 27 26 26 27 27 28 29 29 30
37 37 36 37 38 39 39 38 37 37 36 36 34 32 30 29 28 28 28 29 30 28 28 28 28 28 27 26 26 27 28 27 26 26 27 28 27 29 31 32 33 31 29 28 27 26 27 27 28 30 30 30
39 38 37 37 38 39 39 38 37 37 37 36 35 32 31 30 29 27 27 28 29 28 27 27 28 28 27 28 27 27 28 28 27 26 26 28 29 30 32 33 34 34 32 30 29 28 27 27 28 29 30 30
40 39 38 38 39 40 39 38 38 38 37 37 35 33 31 30 29 27 27 28 28 27 26 26 26 27 27 28 29 29 29 29 27 26 26 27 28 30 32 34 34 35 35 32 31 30 28 28 28 28 30 30
40 40 39 39 40 40 40 39 38 38 37 37 36 34 32 30 29 28 27 27 27 26 25 25 25 26 27 28 29 29 29 30 29 27 27 27 28 31 33 34 34 36 37 35 33 31 29 28 27 27 28 29
42 41 40 40 40 40 40 39 39 38 37 36 36 34 32 30 29 28 27 27 26 25 25 24 24 25 27 28 29 29 30 31 30 27 28 30 28 30 33 34 35 36 37 37 35 33 30 28 26 26 26 27
43 42 41 41 41 40 40 40 39 38 38 37 36 35 33 31 29 28 27 26 25 25 24 23 23 24 26 28 28 28 29 30 29 27 29 31 29 29 32 34 35 35 36 38 37 33 30 28 25 23 22 23
44 43 42 42 41 40 40 40 39 38 38 37 36 35 34 31 29 28 27 26 24 23 23 23 23 24 25 26 26 26 28 29 29 28 29 31 30 29 31 33 34 35 36 38 36 31 28 26 23 21 19 20
45 44 43 43 41 40 40 39 39 39 38 37 36 35 34 32 29 27 27 26 24 22 21 21 22 23 23 24 24 25 26 27 26 27 28 29 29 28 29 30 32 34 34 34 32 27 25 24 20 17 16 17
45 45 44 43 41 41 40 39 39 39 39 37 36 35 34 32 30 28 27 26 24 22 20 20 21 21 22 22 23 23 24 24 23 24 26 26 25 23 24 25 27 29 28 28 28 26 25 21 15 12 12 14
45 44 44 43 41 40 39 40 40 39 40 39 37 35 34 32 31 29 27 25 24 22 20 19 20 20 20 20 20 21 20 21 21 20 21 20 19 18 19 19 20 23 24 23 23 23 23 19 11 8 9 11
43 44 44 43 41 40 40 40 39 39 39 39 37 36 34 32 31 30 28 26 24 23 21 19 19 19 19 18 18 18 17 17 16 15 15 15 13 13 15 15 16 19 19 17 18 21 21 18 12 7 7 8
42 43 43 43 41 42 41 40 40 39 39 39 37 35 35 33 31 30 28 26 25 24 22 20 19 18 18 17 16 15 15 14 13 12 12 11 11 10 12 14 15 17 17 16 16 17 14 13 11 6 7 8
40 42 44 43 43 43 43 41 40 40 39 39 36 35 34 33 30 29 28 27 26 25 23 21 19 19 18 17 16 14 13 13 12 11 11 11 10 10 11 12 13 16 17 16 14 11 10 10 8 5 8 12
40 42 43 44 44 45 44 42 41 40 39 39 36 35 35 33 31 29 28 28 26 25 24 22 20 19 19 18 17 15 14 14 13 12 12 12 11 10 11 11 12 14 16 16 13 10 8 7 6 6 12 16
41 42 43 45 46 46 45 44 42 40 39 37 36 36 35 34 32 29 28 28 27 26 25 23 22 20 20 19 18 17 16 15 15 14 14 13 12 12 12 12 13 12 13 16 16 14 9 6 7 11 14 14
44 43 44 45 46 47 46 45 43 41 39 37 36 36 36 34 32 29 28 28 28 27 26 25 23 22 21 20 20 19 18 17 16 16 16 15 14 13 13 13 13 12 12 13 15 16 13 10 10 13 13 10

ECMWFFLT2_850_spd_057.txt.gz
Wind_Speed
31 31 31 30 29 27 25 24 24 24 24 24 24 24 24 25 25 25 25 25 25 26 27 27 27 26 26 26 25 24 26 28 27 26 27 27 27 28 28 29 31 30 30 31 32 33 34 35 38 41 42 43
32 32 32 32 30 29 28 26 25 25 25 25 24 24 24 24 25 24 24 25 26 26 27 28 28 26 26 25 25 25 26 27 27 27 27 27 27 27 28 29 29 29 28 29 31 32 33 34 35 39 41 42
31 32 33 32 31 30 30 28 26 26 25 25 25 24 24 24 24 24 25 26 27 28 28 29 30 28 26 25 25 25 27 28 27 27 28 28 27 27 28 28 28 28 28 28 29 31 32 33 33 35 38 40
29 31 32 33 34 33 32 31 29 28 27 26 26 25 25 25 25 25 26 27 28 29 29 30 30 29 26 25 25 25 26 27 28 27 28 28 28 27 27 27 27 27 27 27 28 30 31 32 32 33 36 37
29 31 32 34 35 36 35 34 33 32 30 29 28 28 27 27 26 26 26 27 28 29 29 29 30 29 27 26 26 26 26 27 27 27 27 28 29 29 28 27 27 27 27 27 28 30 30 31 31 32 34 35
30 32 33 33 34 36 37 36 36 35 34 32 30 29 28 28 27 27 27 28 28 29 30 30 30 30 29 28 27 26 26 27 28 28 27 28 29 29 29 27 27 28 28 27 28 30 30 30 30 30 32 34
31 32 32 33 34 35 36 37 37 37 36 35 32 31 29 29 29 28 28 28 29 29 30 30 31 31 30 29 28 28 28 28 29 30 30 30 29 29 30 29 27 28 29 29 28 29 30 30 30 30 31 33
30 32 32 32 33 34 35 36 37 37 37 36 35 33 31 30 30 29 29 29 29 30 29 29 29 30 30 29 28 29 29 28 28 29 30 30 30 29 29 30 29 28 29 31 30 29 30 31 30 30 31 32
31 32 32 32 33 33 34 35 36 36 37 37 36 35 33 31 30 29 29 29 30 30 29 29 28 28 27 27 28 28 27 25 26 28 27 27 29 28 28 30 30 29 28 30 32 31 31 32 31 30 31 32
32 33 33 33 33 33 34 34 35 36 36 37 37 36 34 32 31 30 29 29 30 30 29 28 27 26 25 26 27 27 25 24 25 27 26 25 26 28 27 28 30 31 30 30 31 32 31 32 32 30 30 32
31 33 34 34 34 34 34 34 35 36 36 36 37 37 36 33 31 30 29 29 30 30 29 28 27 26 25 26 27 25 24 24 25 25 25 24 24 27 27 27 28 30 31 32 32 32 32 32 33 32 30 31
32 34 35 35 35 35 35 35 36 36 36 36 37 38 37 35 33 31 30 29 29 30 29 28 27 26 26 27 26 24 24 24 24 23 23 24 24 25 25 25 27 28 30 32 34 34 33 32 33 33 31 31
34 35 36 37 36 36 36 36 36 36 36 37 37 38 38 36 33 32 30 29 29 30 29 28 28 27 26 26 25 25 25 23 23 23 23 23 24 23 24 24 24 26 28 30 32 34 35 33 32 33 33 31
36 37 38 38 38 38 38 37 36 36 36 37 37 38 38 36 34 32 30 30 29 29 29 28 27 27 26 26 26 25 25 24 23 23 24 24 25 25 25 25 25 25 26 27 29 32 34 35 33 33 33 32
38 38 39 39 40 40 40 39 37 37 37 37 37 38 39 37 34 32 31 30 29 29 29 28 27 27 26 26 26 25 24 25 24 24 25 26 26 26 27 26 25 25 25 26 27 28 31 35 34 33 33 32
39 39 40 41 41 41 41 41 39 37 37 37 37 39 39 38 35 33 31 30 29 29 29 28 27 27 27 27 27 26 25 25 26 26 26 24 24 25 26 26 25 25 25 24 25 26 28 33 35 33 32 32
41 41 42 42 42 43 43 42 41 39 38 37 38 39 39 38 36 34 31 30 29 29 29 28 28 27 28 27 27 27 26 26 26 25 24 22 23 24 23 23 23 23 23 22 24 26 28 31 34 33 31 30
42 43 43 44 44 44 44 44 42 40 39 38 38 38 39 38 37 35 32 30 29 29 29 28 28 27 27 26 26 26 26 26 24 23 24 24 24 23 20 21 22 21 22 22 23 26 28 30 32 32 31 30
42 43 45 45 45 46 46 45 44 42 41 40 39 38 38 38 37 35 33 31 30 29 29 28 28 27 26 26 25 26 26 25 24 24 25 24 24 22 22 23 21 20 21 22 23 24 26 30 32 31 30 29
42 43 45 46 46 46 46 46 45 44 42 40 39 39 38 38 37 36 33 32 30 29 28 28 28 27 26 26 26 26 25 25 24 24 24 23 23 23 23 22 21 21 21 21 22 22 26 31 32 30 28 29
41 42 44 46 46 47 47 46 46 45 43 41 40 39 39 38 37 36 34 32 31 30 28 28 28 28 27 27 26 26 25 24 23 22 23 23 22 23 22 21 21 21 21 21 22 24 29 31 28 26 26 26
41 41 42 44 45 46 46 46 46 45 44 43 41 40 39 38 37 36 34 33 32 30 29 29 29 28 28 27 26 25 23 23 22 21 21 21 21 21 20 21 21 21 21 21 24 27 29 27 23 22 22 23
43 43 43 43 44 44 45 45 45 45 45 43 42 41 40 38 37 36 34 34 32 31 30 29 29 28 28 28 26 24 22 21 21 20 20 20 20 19 19 19 19 19 19 20 24 26 25 24 21 19 18 20
42 44 45 45 45 44 44 44 45 45 45 44 44 43 41 39 38 36 34 34 33 31 30 29 29 28 28 27 26 24 21 20 19 18 18 18 18 18 17 16 15 15 16 19 23 22 20 22 21 17 16 16
39 41 43 45 46 46 45 45 46 46 46 46 45 44 42 41 39 36 34 34 33 32 30 29 28 28 28 27 25 23 20 18 17 16 16 15 14 14 13 12 11 12 15 18 20 17 18 20 18 14 14 14
36 38 40 42 45 45 46 46 46 46 47 47 46 46 44 42 40 37 34 34 33 32 31 30 28 28 27 26 25 23 20 18 16 15 13 12 11 10 11 11 11 12 15 15 15 17 20 18 12 10 12 11
34 35 37 40 42 43 44 44 45 46 46 47 47 47 46 44 40 37 35 34 33 32 31 30 29 28 27 26 25 23 20 17 16 14 13 11 10 9 10 11 11 13 15 16 15 15 15 13 11 10 8 6
33 34 35 37 40 41 43 44 45 47 48 49 49 49 48 45 42 38 35 34 33 32 31 30 29 28 28 27 26 24 21 18 17 15 14 12 11 10 11 11 10 11 15 18 16 11 10 12 11 7 5 10
33 34 34 35 38 40 41 44 46 49 51 51 51 51 49 46 44 40 36 34 33 32 31 30 29 28 28 28 27 25 23 20 18 17 16 14 13 12 12 12 11 12 15 17 16 12 10 9 8 6 10 16
32 33 34 34 36 38 40 43 45 48 50 51 52 51 49 47 45 42 38 35 33 32 31 31 30 28 28 28 28 27 25 22 20 19 18 16 15 13 13 14 14 14 13 14 17 17 14 11 10 12 13 13
32 33 33 33 35 37 38 41 43 45 46 48 49 49 48 46 44 42 39 36 34 33 31 31 30 29 29 29 29 28 27 25 22 20 19 18 17 15 15 15 15 15 13 13 14 15 16 15 14 14 13 11

ECMWFFLT2_850_spd_060.txt.gz
Wind_Speed
23 24 25 26 27 27 26 26 26 26 25 25 24 22 22 21 22 22 21 21 20 21 20 20 21 22 23 23 24 24 24 24 23 23 24 24 24 24 24 24 24 24 23 21 21 23 25 26 25 26 30 32
25 25 25 26 26 26 26 26 26 26 25 24 23 22 21 21 22 22 22 22 22 22 22 22 22 22 23 23 23 23 23 23 22 22 23 24 25 25 25 24 24 23 23 22 21 21 23 24 24 24 26 29
25 26 26 26 26 26 26 27 27 27 27 26 26 25 24 23 23 23 22 22 23 23 23 23 23 23 23 23 23 23 22 22 22 22 22 23 23 24 25 25 24 23 23 22 22 21 21 22 23 24 25 26
24 25 26 27 28 28 28 29 29 29 29 29 29 28 27 26 25 24 23 23 24 23 23 23 24 24 24 23 24 24 23 22 22 23 22 22 22 23 24 24 24 23 22 22 22 22 21 21 21 22 24 25
24 25 26 28 29 30 31 31 31 31 31 31 31 31 30 29 28 27 26 25 25 24 23 23 23 24 24 25 25 25 24 23 24 24 24 23 23 24 25 24 24 23 22 21 21 21 22 21 21 20 21 24
26 27 28 29 30 31 31 31 32 32 32 32 32 32 31 31 30 30 28 26 25 25 24 23 24 24 25 25 25 25 25 25 25 25 25 24 25 26 26 26 25 25 24 22 21 21 21 21 21 20 20 22
27 28 29 30 30 31 31 31 32 32 32 32 33 33 33 32 32 31 29 28 27 26 25 24 24 24 24 25 25 25 25 26 25 24 24 23 24 25 25 26 26 26 26 25 24 22 21 21 21 21 20 20
27 29 30 30 31 31 31 31 31 32 32 32 33 33 33 33 33 32 31 31 30 28 27 25 24 24 25 25 24 25 25 26 25 23 23 24 23 24 25 26 26 27 27 27 26 24 22 22 22 22 22 21
28 29 30 31 31 32 32 32 32 32 32 32 33 33 33 34 33 33 33 33 32 30 29 27 25 25 24 24 25 25 26 26 25 24 24 24 23 23 25 26 27 27 27 28 28 27 25 23 22 22 23 23
29 31 32 32 32 33 33 33 33 32 32 32 32 33 33 33 34 34 33 34 33 32 31 29 27 25 24 25 25 25 26 25 25 25 25 25 24 24 25 26 27 27 27 28 28 29 28 26 24 23 23 24
30 31 32 33 33 33 33 34 33 33 33 33 32 32 33 33 34 34 34 34 34 33 32 30 28 26 25 25 26 25 25 25 25 25 25 25 25 25 25 26 26 27 27 27 28 29 29 30 28 26 24 24
31 31 33 34 35 35 34 35 34 34 34 33 33 33 33 33 33 33 34 34 34 34 32 31 29 27 27 26 26 25 25 25 25 25 25 25 25 25 26 26 27 27 27 26 27 27 29 30 31 29 27 25
32 32 33 34 35 36 36 36 35 35 35 34 34 34 34 33 33 33 33 33 34 34 33 32 30 28 27 26 26 25 25 25 26 26 26 26 25 26 26 27 27 27 26 26 26 27 28 30 31 32 30 28
33 33 34 35 36 36 37 37 37 37 37 36 36 35 35 34 33 33 33 33 34 34 34 32 31 29 27 27 26 25 25 25 26 26 26 26 26 26 27 26 27 27 27 27 26 27 28 29 31 32 32 31
33 34 35 36 36 37 37 38 38 38 38 38 38 37 36 35 34 33 33 33 33 34 34 33 31 29 27 26 26 25 25 25 25 26 26 26 26 26 26 26 27 27 27 27 27 27 28 29 30 31 32 31
34 35 36 37 38 39 39 39 39 39 39 39 39 38 37 36 35 34 34 33 33 34 34 33 32 30 28 26 26 26 25 26 26 26 26 25 26 27 26 26 26 26 26 27 27 27 28 29 31 31 31 30
36 37 38 39 40 41 41 41 41 40 40 40 40 40 39 37 36 35 35 34 34 34 34 34 33 31 29 27 26 26 26 26 27 26 26 26 26 27 26 26 26 25 26 26 27 27 28 29 30 31 30 28
37 38 39 40 40 41 42 42 42 42 41 41 41 40 40 39 37 36 36 35 35 34 34 33 33 32 30 28 27 27 27 27 27 27 26 26 26 26 26 26 25 25 26 26 27 27 28 28 29 29 28 26
34 36 37 38 39 40 41 42 42 43 43 42 42 41 41 40 39 37 36 36 36 35 34 33 33 33 31 29 28 28 27 27 27 27 26 25 26 26 26 26 25 25 25 25 26 27 27 27 27 27 26 25
30 31 33 35 36 38 39 41 41 42 43 43 43 43 43 42 41 39 38 37 36 35 34 33 33 33 31 30 28 28 28 28 28 27 26 25 25 26 26 26 25 25 25 25 25 26 26 26 25 25 24 23
27 28 30 31 33 35 37 39 40 41 42 42 43 43 44 43 42 41 40 38 37 36 34 33 33 33 31 30 29 28 28 28 28 27 27 26 25 25 25 25 24 24 24 24 24 25 25 24 23 22 20 20
27 27 28 29 30 32 34 36 38 39 40 41 42 43 43 44 43 43 42 40 38 37 35 34 33 33 31 30 29 28 28 28 27 26 26 26 25 24 24 24 23 23 22 22 23 23 23 22 21 20 18 18
27 26 26 28 28 30 32 34 35 37 38 39 40 41 42 43 44 44 43 42 40 38 36 34 34 33 32 30 29 28 28 28 27 26 26 26 25 24 23 23 22 20 20 20 21 21 21 20 20 19 16 15
26 26 26 27 28 29 30 31 33 35 37 38 39 40 41 42 43 44 44 42 41 39 37 35 34 34 32 30 29 28 28 28 27 26 26 26 25 24 23 21 19 18 17 18 19 19 19 19 19 17 14 14
24 25 25 26 27 28 29 30 31 33 35 36 37 38 39 41 42 43 44 43 42 41 39 37 36 35 33 30 28 28 28 27 27 26 25 25 24 23 22 20 18 16 15 16 18 18 19 19 16 12 12 13
22 23 24 25 26 28 29 29 30 31 33 34 36 37 39 40 42 43 44 44 44 43 41 39 37 36 34 31 28 28 27 27 27 26 25 25 24 22 21 19 17 14 13 15 17 18 20 19 13 10 9 11
21 21 21 23 24 26 27 28 28 29 31 33 36 38 40 41 42 43 44 44 45 44 44 42 39 37 35 32 29 28 28 27 27 27 25 25 25 22 21 20 17 15 14 16 16 16 17 15 13 12 7 8
21 21 21 21 23 24 25 27 27 28 29 31 34 37 40 41 41 42 43 43 44 44 45 44 41 38 36 34 30 28 28 28 28 27 26 25 25 23 22 20 18 15 14 16 16 13 12 11 12 10 6 11
23 23 23 23 25 26 26 28 29 30 30 30 31 34 37 38 40 41 41 42 43 43 44 43 42 39 37 34 31 30 29 29 28 27 27 26 25 25 24 21 19 16 15 17 19 17 15 12 9 8 10 13
25 25 26 25 27 28 28 28 29 29 30 31 31 33 34 36 38 40 40 41 41 41 42 42 41 39 37 36 33 31 30 30 29 28 27 27 26 26 25 23 22 20 18 19 21 21 19 15 12 14 15 14
29 29 29 27 27 27 26 27 28 27 28 30 31 32 33 35 37 39 40 41 41 41 41 41 41 40 39 38 36 33 31 31 30 29 28 27 27 27 26 25 25 24 21 20 21 21 21 19 17 17 16 15

ECMWFFLT2_850_spd_063.txt.gz
Wind_Speed
14 16 18 19 19 20 21 22 22 22 23 23 23 22 22 22 22 22 21 20 18 17 16 16 16 16 16 17 18 18 18 19 20 20 20 20 20 19 18 18 18 18 18 17 17 18 19 19 19 19 20 21
15 16 17 18 19 20 21 22 22 23 23 23 24 24 24 24 24 24 23 22 21 20 19 18 17 17 17 17 17 18 18 18 19 19 19 19 20 19 19 19 18 18 18 18 18 17 18 19 19 20 20 20
16 17 18 18 19 20 21 22 22 23 24 24 25 25 25 25 25 25 24 24 24 23 21 20 19 18 18 18 17 17 18 18 18 19 19 19 19 19 19 18 17 17 17 18 18 17 17 18 19 20 20 20
18 18 20 21 21 21 21 22 23 24 25 26 26 26 26 26 26 26 25 25 24 23 22 21 20 19 19 19 19 18 18 18 19 19 19 19 19 19 19 19 18 17 17 17 18 18 17 17 17 19 20 20
19 20 21 22 23 23 23 23 24 25 25 26 27 27 27 27 27 27 26 26 25 24 22 21 21 20 20 20 20 20 20 19 19 20 20 20 20 21 20 20 20 19 17 17 17 18 18 17 17 17 18 20
21 21 22 23 24 25 25 25 25 26 25 25 26 26 27 27 27 27 28 28 27 26 24 23 23 22 21 21 21 21 21 20 20 20 21 21 21 21 22 21 21 21 19 18 18 18 18 18 17 17 17 18
22 22 23 24 25 25 26 26 27 27 26 26 26 26 26 26 27 28 28 28 29 28 27 25 24 24 23 22 22 22 21 21 21 21 21 21 21 22 22 23 22 22 21 20 19 18 18 18 18 17 17 17
22 23 24 25 26 26 27 28 28 28 28 28 27 26 26 26 27 28 28 28 29 29 29 27 26 25 24 24 23 23 22 22 22 21 21 21 22 22 23 23 23 23 22 21 21 20 19 19 18 17 17 18
23 24 25 26 27 28 28 29 29 29 29 29 29 28 27 27 27 27 28 28 29 29 29 29 28 27 26 25 25 24 24 23 23 22 22 22 23 23 23 24 24 24 24 23 23 22 21 21 20 19 18 18
23 24 25 26 27 28 28 29 30 30 30 30 30 30 29 29 28 28 28 28 28 28 29 30 29 28 28 27 26 25 25 24 23 23 23 23 23 23 23 24 24 24 25 24 24 24 23 23 22 22 21 19
23 24 26 27 27 28 29 30 30 31 31 31 31 31 31 31 30 29 28 28 28 28 29 30 30 30 29 29 28 26 26 25 24 24 23 23 24 24 23 23 23 24 24 25 24 24 24 24 24 24 23 22
24 25 27 28 29 29 30 31 31 32 32 33 33 32 32 32 32 31 30 29 28 28 28 29 30 30 30 30 29 28 27 26 25 24 24 24 24 24 24 23 23 24 24 24 24 25 24 24 25 25 24 23
25 26 28 29 30 31 31 32 32 33 33 34 34 34 34 34 33 32 31 30 29 28 28 29 30 30 30 31 31 30 28 27 26 26 25 25 24 24 24 24 24 24 24 24 24 25 25 24 25 25 25 24
26 27 28 29 30 31 32 33 33 33 34 34 34 35 35 35 35 34 33 32 31 30 29 29 29 29 30 30 31 31 30 29 28 27 27 26 25 24 25 25 25 25 25 24 24 25 25 25 25 25 25 25
27 28 29 30 30 31 32 33 34 34 34 34 34 35 35 36 35 35 35 34 33 32 31 30 29 29 29 29 30 31 31 30 29 28 27 26 25 25 26 26 25 25 26 25 25 25 26 25 25 25 25 25
28 28 29 29 30 30 31 32 33 33 33 34 34 35 35 36 36 36 36 35 35 34 33 32 31 31 30 30 29 30 31 30 30 29 28 27 26 26 26 26 26 26 27 26 26 26 26 26 26 25 25 26
27 28 28 28 29 29 29 30 31 32 32 33 33 34 35 35 36 36 36 36 36 36 35 34 32 32 31 31 30 29 30 30 30 29 29 27 26 26 26 27 26 26 27 27 26 26 26 27 26 26 26 25
25 26 26 27 27 27 28 29 30 31 31 32 33 33 34 35 36 36 36 36 37 37 36 35 33 32 32 31 31 30 30 30 30 30 29 28 27 27 27 28 27 27 27 27 27 27 26 27 26 26 26 24
22 23 24 25 26 26 27 28 29 30 31 31 32 33 34 34 35 35 36 36 37 37 37 36 35 33 32 32 32 31 30 30 30 30 30 29 28 28 28 28 28 28 28 28 28 27 27 27 26 26 25 23
19 20 22 23 24 25 26 27 28 29 30 31 31 32 33 33 34 34 35 36 36 37 37 36 35 34 33 32 32 32 31 30 30 30 30 29 28 29 29 29 29 29 29 29 28 27 27 27 26 26 24 23
17 18 19 21 22 24 24 26 27 28 29 30 30 31 31 32 32 33 33 34 35 36 36 36 35 34 33 33 33 33 32 31 30 30 30 29 28 29 30 30 30 29 29 30 29 28 28 27 26 25 24 22
18 18 18 19 21 23 23 24 25 26 27 28 28 29 29 30 30 31 32 32 33 34 35 35 35 34 33 33 34 34 33 32 31 30 30 30 29 28 30 30 30 30 30 30 30 29 28 27 26 25 23 22
18 18 18 18 20 21 22 23 23 24 26 26 26 27 27 28 29 30 31 31 32 33 34 34 34 33 33 33 33 34 35 34 33 32 31 31 30 29 29 30 31 30 30 30 31 30 29 27 26 25 23 22
18 18 18 17 18 19 20 21 22 23 23 23 24 24 25 26 27 27 29 30 31 32 33 33 33 33 32 32 33 34 35 35 34 33 32 31 31 30 30 30 30 30 30 30 31 31 29 27 26 25 24 22
19 19 19 19 18 18 18 19 21 21 20 21 22 22 23 25 26 27 28 29 30 30 31 32 32 32 32 32 33 34 34 34 34 34 33 32 31 31 31 30 29 28 28 30 31 30 29 28 25 24 24 22
22 21 20 20 19 18 18 19 20 20 19 20 21 22 24 25 27 28 29 30 31 32 32 32 32 32 32 32 32 33 34 34 34 34 33 32 32 31 31 31 29 26 26 29 30 28 29 29 25 23 22 20
26 26 25 24 23 22 21 21 21 20 20 20 21 22 23 25 27 29 30 31 33 34 34 35 35 34 33 33 33 34 34 34 33 33 33 32 32 32 32 31 30 27 26 28 28 24 26 25 21 20 19 17
27 29 28 28 27 26 25 25 24 24 23 22 22 22 22 24 26 28 30 31 32 33 34 36 36 36 36 35 34 35 35 35 34 34 33 33 33 33 34 33 31 28 26 28 26 22 20 17 15 16 17 17
27 29 29 30 30 30 30 29 29 28 28 28 27 27 26 26 26 26 27 28 30 31 33 34 36 37 37 36 35 35 36 36 35 35 34 34 34 35 35 34 33 30 27 28 28 25 23 17 13 13 14 16
28 28 29 30 31 31 32 33 33 32 32 33 33 33 32 31 29 27 26 26 28 30 31 33 34 36 37 37 37 37 37 36 36 36 36 35 36 36 35 34 35 34 29 28 30 30 30 26 21 19 17 17
31 30 29 29 30 30 32 34 35 35 34 34 35 35 34 33 31 28 28 26 26 27 29 30 32 34 36 37 37 37 38 38 37 37 37 37 38 37 35 34 36 37 33 31 32 32 33 32 29 26 23 21

ECMWFFLT2_850_spd_066.txt.gz
Wind_Speed
10 11 12 13 13 14 15 15 16 16 17 18 19 20 21 21 21 21 21 21 20 19 18 18 18 18 17 17 17 17 17 17 18 18 18 18 17 17 16 17 17 17 17 17 18 19 19 19 18 18 19 21
10 10 11 12 13 13 15 15 16 17 17 18 19 19 20 21 22 23 23 22 22 21 20 19 19 18 18 17 17 17 17 17 17 18 19 19 18 18 17 16 16 17 18 18 19 19 19 19 19 19 19 19
10 10 11 12 13 13 15 15 16 17 18 18 18 19 20 20 21 22 23 23 23 22 21 20 19 18 18 18 17 17 16 16 16 17 19 19 19 19 19 17 16 16 17 18 19 19 20 20 20 20 19 19
11 11 12 12 13 14 15 16 16 17 18 18 18 19 19 19 20 20 22 23 23 23 22 21 20 19 18 18 18 18 17 17 16 17 18 19 20 20 20 20 17 16 16 17 18 19 20 20 20 20 20 20
12 12 13 13 14 15 16 17 17 18 18 19 19 19 20 20 19 19 20 21 22 22 23 23 22 21 20 20 19 19 19 18 17 17 18 19 20 20 21 21 19 18 17 17 17 18 19 19 20 20 20 21
13 13 14 15 16 17 17 18 19 19 19 19 19 20 20 21 20 20 20 20 21 21 22 23 23 23 22 21 21 20 20 19 19 18 18 19 20 20 21 21 21 20 19 18 17 17 18 18 19 19 19 20
14 15 16 17 17 18 19 20 20 21 20 20 20 21 21 21 21 21 21 21 21 21 21 22 22 22 23 22 22 21 21 20 20 19 19 19 20 20 21 21 22 21 21 20 18 18 18 18 18 18 18 19
16 17 17 18 19 20 21 21 22 22 22 22 23 23 23 23 23 23 22 22 22 21 21 21 21 21 22 23 23 23 22 22 21 21 20 20 20 21 21 21 21 22 22 21 20 19 19 18 18 18 18 18
18 18 19 20 21 22 23 24 24 24 24 24 25 25 25 25 24 24 24 23 23 22 22 21 20 21 21 22 23 24 24 23 23 23 22 21 21 21 21 21 21 22 23 22 22 21 20 20 19 19 19 19
19 19 20 21 22 23 24 25 26 26 26 26 26 27 27 27 26 26 25 25 24 24 23 22 21 21 21 21 22 23 23 24 24 23 23 22 22 21 21 22 22 22 23 23 23 22 21 21 21 20 20 19
19 20 22 23 23 25 26 27 28 28 28 27 28 28 28 28 28 28 27 27 26 26 25 24 23 21 21 21 21 22 23 23 23 24 23 23 22 22 22 22 22 23 23 24 24 23 23 22 22 21 21 21
20 21 23 23 24 26 27 28 29 28 28 28 28 28 28 29 29 29 28 28 27 27 27 25 24 23 22 21 21 22 23 23 23 23 24 23 23 22 22 22 22 23 23 24 24 24 24 23 23 22 23 22
20 22 23 24 25 26 27 28 28 28 28 28 28 28 28 29 29 29 29 28 28 28 28 27 26 24 23 22 22 22 22 23 23 23 23 23 23 23 23 22 22 23 23 23 24 25 24 24 23 23 24 23
21 22 23 24 25 25 26 26 27 27 27 27 28 28 28 29 29 29 29 29 29 29 28 27 27 26 25 23 22 23 23 23 23 23 23 23 23 23 23 23 23 24 24 24 24 25 25 25 24 24 24 24
21 21 22 23 23 24 25 25 26 27 27 26 27 27 27 28 28 29 29 29 29 29 28 27 27 26 25 24 23 23 23 23 23 23 23 24 23 23 23 23 24 24 24 24 24 25 25 25 25 25 25 24
19 19 20 21 22 23 23 25 26 27 26 26 26 26 26 27 27 28 29 29 28 28 28 27 27 26 26 24 23 23 24 23 23 24 23 24 24 23 23 23 24 24 25 25 25 25 25 25 25 25 25 25
16 17 19 19 21 21 22 24 25 26 25 25 25 25 26 26 27 27 27 27 27 27 27 27 26 26 25 23 23 22 23 23 23 24 24 24 25 24 24 24 24 25 25 25 26 26 26 26 25 25 26 25
15 16 17 18 19 20 21 22 23 24 24 24 24 24 25 26 26 26 26 26 26 26 26 26 26 25 24 23 23 23 23 23 23 23 24 24 25 25 25 25 24 25 26 26 26 26 27 27 26 26 26 26
15 16 17 18 18 18 19 20 22 23 22 22 23 24 24 25 25 24 24 24 25 25 25 25 25 24 24 23 24 23 23 23 23 24 25 25 26 26 26 26 25 25 26 26 26 26 27 27 27 27 27 26
16 17 16 17 18 17 17 18 20 21 21 21 22 23 23 23 23 22 22 23 23 24 24 25 25 24 24 24 24 24 23 24 24 25 25 25 26 28 27 27 26 25 26 27 27 27 27 27 28 28 28 28
17 17 17 17 17 17 16 16 17 18 19 20 21 21 21 20 20 20 20 21 23 24 24 25 25 24 24 24 25 25 25 24 24 25 26 26 25 28 29 28 28 27 27 28 28 27 27 27 28 29 28 28
17 16 15 15 15 15 15 15 15 16 17 19 20 20 19 18 18 18 19 20 22 23 24 24 25 24 24 25 26 26 26 25 25 25 26 27 26 27 30 30 29 28 29 30 30 29 28 28 29 29 28 29
18 17 16 15 14 13 13 13 14 15 16 18 19 18 17 17 17 17 18 19 21 22 23 24 24 24 24 25 26 27 27 27 26 26 27 28 28 27 29 30 30 29 30 32 32 30 29 28 29 28 28 29
23 22 22 21 20 17 15 15 15 15 16 18 18 18 18 18 18 18 19 20 21 21 22 23 23 24 24 25 26 27 27 27 27 28 28 29 29 30 30 29 29 29 30 32 33 32 31 30 29 28 29 29
28 28 28 27 26 24 22 20 19 19 20 21 21 22 22 23 22 22 24 24 24 23 23 23 23 23 23 24 26 27 27 27 28 28 29 29 30 31 31 31 28 28 31 34 34 34 33 32 30 29 29 29
30 30 30 31 30 30 28 27 27 27 27 27 27 27 27 27 27 27 28 28 27 26 25 24 23 22 22 23 25 26 27 27 28 28 28 29 30 30 31 32 29 27 30 33 34 35 37 36 32 31 29 27
30 30 31 32 32 33 32 31 31 32 32 32 32 31 30 30 30 30 31 30 29 29 27 26 25 23 21 21 23 25 27 27 27 27 27 28 30 30 31 32 30 28 29 32 34 33 32 30 27 29 28 25
30 31 32 33 34 34 34 34 34 35 35 35 33 33 31 31 31 32 32 32 31 31 30 28 27 26 24 22 21 23 25 27 27 28 28 28 28 29 31 32 30 29 30 32 32 27 24 21 19 22 22 21
29 30 32 34 35 36 36 35 36 36 37 37 35 34 33 32 32 33 34 33 33 33 32 31 29 29 28 26 24 24 24 25 26 27 28 29 29 30 31 32 32 31 31 32 32 30 28 23 18 17 17 18
28 30 32 34 36 37 37 38 38 38 38 38 36 35 34 33 34 34 35 34 34 34 33 32 32 31 31 30 29 28 27 25 25 26 27 28 30 32 32 33 34 34 33 32 33 34 35 31 26 26 24 21
30 33 35 36 37 36 37 39 40 39 39 39 38 37 36 35 35 35 35 36 35 35 34 34 33 32 32 31 31 30 29 28 26 26 26 27 29 31 32 33 35 36 33 33 35 35 36 36 34 34 33 30

ECMWFFLT2_850_spd_069.txt.gz
Wind_Speed
8 8 9 10 10 11 11 12 12 13 13 13 13 14 14 15 15 15 16 17 18 18 18 18 18 18 18 18 17 18 18 18 18 17 17 17 18 18 18 17 16 15 16 18 18 19 20 20 21 22 22 21
8 8 8 10 10 11 12 12 13 14 14 14 14 15 15 15 15 15 16 16 17 17 18 18 18 19 18 18 17 17 17 17 17 17 18 19 19 19 19 19 18 16 17 18 19 18 19 20 20 21 21 22
8 8 8 9 10 11 12 13 14 14 15 15 15 15 15 15 15 15 15 16 16 16 17 17 17 18 18 18 18 17 17 17 17 17 17 18 19 20 19 19 18 17 18 18 19 20 19 19 19 20 21 21
8 8 8 9 10 11 12 13 14 15 15 15 16 16 16 15 15 15 15 15 15 16 16 16 16 16 17 18 18 18 18 17 17 16 16 17 18 19 19 19 18 17 18 19 20 21 21 20 20 20 20 21
8 8 8 9 10 11 12 13 14 15 16 16 17 17 17 16 16 15 16 15 15 15 15 16 16 16 16 16 17 17 18 18 18 17 16 16 17 18 19 19 18 17 18 18 20 21 21 21 21 21 21 21
8 8 9 10 11 12 13 14 15 16 17 18 18 19 19 19 18 17 17 17 17 16 16 16 16 16 16 16 16 17 17 18 18 18 18 17 16 17 18 18 18 17 17 18 19 20 21 21 21 21 21 21
9 9 10 11 12 14 15 15 16 17 18 19 19 20 21 20 20 19 19 19 19 19 18 17 17 17 17 17 17 17 16 16 17 18 18 17 17 17 17 18 18 18 17 18 18 19 20 20 21 21 21 21
10 11 12 13 14 15 16 17 17 18 19 20 21 21 21 21 21 21 20 20 20 20 20 19 19 18 18 17 17 18 17 17 17 17 18 18 18 18 18 18 18 18 18 18 18 18 18 19 20 21 21 21
12 13 14 15 16 17 17 18 19 19 20 21 21 22 22 22 21 21 21 21 21 21 21 21 20 20 19 19 18 19 19 18 18 18 18 18 18 18 19 19 19 19 19 19 18 18 18 19 19 20 20 21
13 14 15 16 17 18 19 19 20 20 21 21 22 23 23 23 22 22 21 21 21 21 22 22 21 22 21 20 20 20 20 19 19 19 19 19 19 19 19 20 20 20 20 20 20 19 19 19 19 20 20 20
14 15 16 17 18 19 19 20 21 21 21 22 23 23 23 23 23 22 22 22 22 22 22 23 22 22 22 21 20 21 21 21 20 20 20 19 19 19 19 20 20 20 21 21 21 21 21 20 21 21 21 21
14 15 16 17 18 19 20 20 21 21 21 22 23 23 23 23 23 23 23 23 22 22 23 23 23 22 22 22 21 21 22 22 21 21 21 20 19 19 19 19 20 20 21 21 21 22 21 22 22 22 22 22
13 15 16 17 18 19 19 20 21 21 21 22 23 23 23 23 23 23 23 23 23 23 23 23 23 22 21 21 20 21 21 21 22 22 21 21 21 20 20 20 20 20 21 20 21 22 22 22 22 22 23 23
10 12 14 15 16 17 18 19 19 20 20 21 22 22 22 22 22 23 23 23 23 23 23 22 22 22 21 20 19 19 20 20 22 22 22 22 22 21 21 20 20 21 21 21 21 21 22 22 22 22 23 23
9 11 12 13 14 16 16 17 18 18 18 19 20 21 22 21 21 22 23 23 23 23 23 22 21 21 20 19 18 18 20 20 21 22 22 22 22 22 22 22 21 21 22 22 21 22 22 22 22 22 23 23
12 13 14 15 16 17 17 18 18 18 17 17 19 20 21 21 20 21 22 23 22 22 22 21 20 20 19 19 17 18 20 20 20 21 22 22 22 23 23 23 22 22 24 24 22 23 23 23 23 23 23 24
15 16 16 17 18 18 18 19 19 18 17 17 18 20 20 20 20 21 21 21 21 21 20 20 20 20 19 18 18 18 19 20 20 20 21 21 22 23 23 24 23 23 25 24 24 24 23 24 24 24 24 24
16 17 18 18 19 19 20 20 20 19 19 18 18 19 19 20 20 20 20 20 20 19 20 20 20 20 19 18 18 19 19 20 20 20 21 21 22 23 23 25 25 25 26 26 26 25 24 25 24 25 25 25
17 17 18 19 19 20 20 20 20 20 20 20 19 20 20 19 20 20 20 19 19 19 20 20 21 20 19 19 19 19 19 20 20 20 20 20 22 23 23 24 25 26 27 28 27 26 26 26 26 26 26 25
19 17 16 17 18 18 19 20 19 19 19 20 20 20 20 20 21 20 20 20 21 21 21 22 23 22 21 20 20 20 20 20 20 20 21 20 21 23 23 24 25 26 27 28 28 28 27 27 27 28 27 27
21 19 17 16 16 17 17 18 19 19 19 19 20 21 21 21 21 21 21 22 22 23 23 24 25 24 24 24 23 22 21 21 21 21 21 21 20 23 24 25 25 26 27 28 28 29 29 28 28 28 28 28
23 21 19 17 17 16 16 16 17 18 19 19 20 21 22 23 23 23 23 24 24 25 25 26 26 25 25 25 25 25 24 23 22 21 22 22 21 22 24 25 26 26 27 28 29 30 29 28 29 29 29 29
24 23 22 21 20 19 19 18 18 19 20 21 22 23 24 25 26 26 26 26 26 26 27 27 27 26 24 24 25 26 26 25 23 21 21 23 23 22 24 25 25 25 27 28 29 30 30 29 30 29 29 30
23 24 25 25 26 26 26 25 24 23 24 25 25 26 26 28 29 29 29 28 27 27 28 28 28 27 25 24 24 24 25 25 24 23 22 22 23 23 24 24 24 24 26 29 30 30 30 29 30 30 30 31
23 25 26 28 29 29 30 30 30 29 28 27 28 28 28 28 29 30 30 29 29 28 29 29 29 28 27 26 25 24 24 23 23 23 22 22 23 24 25 25 24 23 26 30 31 31 31 32 31 30 30 29
21 23 24 26 28 29 30 30 30 31 31 29 28 29 30 30 30 30 31 30 30 30 30 30 30 29 29 28 27 27 25 24 24 23 23 24 24 24 25 27 25 23 26 29 30 32 36 35 32 30 29 28
20 22 23 25 27 29 31 32 32 31 31 30 30 29 29 29 29 29 31 31 31 32 32 32 32 31 31 30 29 29 29 27 26 25 25 25 25 25 25 26 25 23 25 27 29 29 29 29 32 35 30 24
21 24 25 27 30 32 34 36 37 36 34 32 31 31 31 30 29 28 29 29 30 31 32 33 33 33 33 32 31 31 31 30 28 27 26 25 26 25 25 26 25 24 24 26 27 25 23 24 26 26 23 24
24 27 29 32 35 37 39 41 41 41 40 37 34 34 33 32 30 28 29 28 28 30 31 33 34 34 35 35 34 34 34 33 31 29 27 27 26 25 26 26 27 27 25 27 28 26 26 23 18 18 23 31
26 29 33 37 40 43 44 44 43 42 41 40 38 36 34 33 31 30 30 30 30 31 31 31 31 32 34 35 35 36 37 36 33 32 29 27 27 27 26 27 29 29 27 28 30 30 30 27 24 27 30 29
28 32 35 39 43 45 45 44 44 43 41 40 38 36 35 34 33 32 32 32 31 31 30 30 29 29 31 33 34 36 38 39 37 34 31 28 28 29 27 27 30 30 29 30 32 32 32 33 31 31 31 28

ECMWFFLT2_850_spd_075.txt.gz
Wind_Speed
5 5 5 5 6 6 6 6 6 6 6 6 6 6 7 7 7 7 7 8 9 9 10 11 11 12 12 12 12 13 13 13 12 11 11 10 10 11 12 12 12 13 12 13 14 15 16 18 18 17 16 15
5 5 5 5 5 5 5 5 5 5 5 6 6 6 7 7 7 7 7 8 8 9 10 10 11 11 12 12 13 13 13 13 13 13 12 12 11 12 12 13 13 13 13 13 13 15 16 17 18 18 17 16
5 6 6 6 5 5 5 4 5 5 5 6 6 7 7 7 8 8 8 8 9 10 10 11 11 11 11 12 13 14 14 14 14 14 14 14 13 13 14 14 13 13 14 13 13 15 16 16 17 17 18 17
5 6 5 6 5 4 4 4 4 5 6 6 7 7 8 8 9 9 10 10 11 11 12 12 12 12 12 13 14 15 15 15 15 15 16 16 16 15 15 15 15 15 15 15 14 15 16 16 17 17 18 18
5 5 5 5 4 4 4 4 5 5 6 7 8 9 10 10 11 11 12 12 12 13 13 14 14 15 14 15 16 17 17 17 17 17 18 18 18 18 17 17 16 16 17 17 17 16 16 16 17 17 18 18
5 5 5 4 3 3 3 4 5 6 7 8 9 10 11 11 12 12 13 13 14 14 14 15 16 17 17 17 18 19 19 20 20 20 20 20 20 20 19 19 18 18 18 19 19 18 18 17 17 17 17 18
4 3 3 2 1 1 2 3 4 6 7 8 8 10 11 12 13 13 14 14 15 15 16 17 18 19 19 19 20 21 21 21 22 22 22 22 22 22 22 21 21 20 20 20 20 20 20 19 18 18 18 18
2 2 1 1 1 2 3 4 5 6 7 8 9 10 11 12 13 14 15 16 17 17 18 19 19 20 21 21 21 22 22 22 22 23 23 23 24 24 24 23 23 23 22 22 22 21 21 21 21 20 19 18
2 2 2 3 4 4 5 6 7 8 9 10 11 12 12 13 14 15 16 17 18 19 20 20 21 22 23 23 23 23 23 23 23 24 24 24 24 24 25 25 25 25 24 24 23 23 23 23 23 22 21 20
5 5 5 6 7 7 8 9 10 11 12 12 13 14 14 15 16 17 18 19 20 21 21 22 22 23 23 24 24 24 24 24 24 25 25 24 24 25 25 25 26 27 27 26 26 25 24 24 24 24 24 23
7 8 8 8 9 9 10 11 12 13 14 14 15 16 17 17 18 19 20 21 21 22 22 23 23 23 24 24 24 24 24 24 24 25 26 25 25 25 25 26 26 27 27 28 28 27 27 26 26 26 26 26
7 7 7 8 9 10 11 12 13 14 14 15 16 17 18 18 19 20 21 22 22 23 23 23 24 23 24 23 23 24 24 24 25 25 26 26 26 26 26 26 26 27 27 28 28 29 28 28 28 28 28 28
5 6 7 8 9 10 11 12 13 13 13 14 15 16 17 18 19 20 21 21 22 23 23 23 23 22 22 21 21 22 23 24 25 25 25 26 26 26 26 26 27 27 27 27 28 29 29 29 29 29 29 29
4 5 6 7 9 9 10 11 11 12 12 13 13 14 15 16 17 18 19 20 21 21 21 21 21 21 21 20 20 22 22 23 24 25 25 25 26 26 26 26 27 27 28 27 27 28 29 29 29 29 30 30
1 3 4 5 6 8 8 9 10 11 11 11 11 12 13 14 15 17 18 19 19 20 21 21 21 21 21 20 20 22 23 23 24 25 26 26 27 28 28 27 27 28 28 28 28 28 29 29 29 29 30 30
3 2 3 5 6 7 8 8 9 10 10 10 11 11 12 13 14 16 17 18 19 20 21 21 22 22 22 22 22 23 24 25 26 27 27 28 29 29 30 29 29 29 29 29 29 29 29 30 30 30 29 29
5 5 5 5 6 7 7 8 9 9 9 10 10 11 12 13 14 16 17 18 19 20 21 21 21 22 22 22 23 24 25 26 26 27 28 28 29 30 30 30 30 30 30 29 30 29 30 30 30 30 30 29
7 7 7 8 8 7 8 8 9 9 9 10 10 11 12 13 14 15 17 18 19 20 20 21 21 22 22 23 23 24 25 25 26 27 28 28 29 29 29 30 29 30 30 29 29 29 29 30 30 30 30 30
9 9 10 10 9 9 9 9 9 9 9 10 11 12 12 13 14 15 16 17 18 19 20 21 21 22 22 23 24 25 25 25 25 26 26 27 28 28 28 28 28 28 29 28 28 28 29 29 29 29 29 29
9 10 10 10 9 9 9 9 9 10 11 12 13 14 15 15 16 16 17 18 19 20 21 22 22 22 22 22 23 24 25 25 26 26 26 25 26 27 27 27 27 27 27 28 28 28 28 28 28 29 29 29
9 10 10 10 9 9 9 9 10 10 11 13 14 16 17 18 18 19 19 19 21 22 23 24 25 25 24 23 22 22 23 23 24 25 26 25 25 26 27 27 27 27 27 28 28 29 29 29 29 29 29 29
8 9 9 9 10 10 10 11 11 12 13 14 16 17 19 20 21 21 21 21 23 23 24 25 26 27 26 26 26 25 24 23 23 23 25 25 24 25 27 27 27 28 28 29 30 30 30 29 30 31 30 30
7 8 9 10 11 12 13 14 15 15 17 18 19 20 21 23 24 24 24 24 24 25 26 26 27 28 28 28 28 28 28 26 24 24 24 25 25 25 26 27 27 28 29 31 31 31 30 31 31 31 30 30
8 10 12 13 15 16 17 18 19 20 21 23 23 24 25 26 27 27 27 26 26 26 27 28 28 29 29 28 29 29 29 28 27 26 26 26 26 26 27 27 27 27 30 32 33 33 32 32 31 31 31 30
12 14 16 18 20 21 22 24 25 26 26 28 28 29 30 30 30 30 30 28 28 27 28 28 28 28 28 27 27 28 28 28 28 28 28 28 28 28 29 29 27 26 29 32 34 34 35 35 34 33 31 29
14 17 19 21 23 25 26 28 30 31 32 32 33 33 33 33 32 31 29 27 26 25 25 27 27 27 27 26 26 27 28 28 28 28 28 29 30 30 31 31 29 27 28 31 32 34 37 38 36 34 33 31
16 18 20 23 26 28 30 31 33 34 35 35 35 34 33 31 29 27 25 23 22 22 22 24 25 26 26 26 26 27 28 28 28 28 28 29 30 31 32 33 31 29 28 29 30 31 32 32 34 36 33 28
19 21 23 26 28 30 32 33 35 36 36 36 34 31 28 26 25 24 23 23 22 22 21 22 23 25 26 27 27 28 29 29 28 28 28 28 28 29 31 32 32 30 28 28 28 27 28 28 29 28 25 27
23 25 28 30 32 34 36 37 38 38 37 35 31 28 26 24 24 24 24 24 23 23 23 23 22 23 25 26 27 28 29 30 29 29 27 27 26 27 28 30 31 30 29 29 28 28 28 25 21 21 25 32
27 30 32 35 37 39 40 40 39 37 35 32 29 27 26 25 24 24 24 24 24 24 24 24 23 23 24 25 26 27 29 30 30 30 29 28 27 27 27 28 31 32 31 30 31 31 31 29 26 28 32 32
31 34 36 38 39 39 39 37 35 32 29 28 27 27 26 25 24 24 24 24 24 25 25 25 24 24 24 23 24 25 27 29 30 31 31 30 29 28 28 28 31 33 31 31 33 32 32 33 33 33 32 30

ECMWFFLT2_850_spd_078.txt.gz
Wind_Speed
8 8 8 8 7 6 6 5 4 3 2 2 2 2 3 3 3 4 5 5 6 7 7 7 8 8 9 11 12 13 13 13 13 14 14 14 14 14 14 15 14 15 16 16 17 17 17 17 16 15 13 12
8 8 9 8 7 6 5 4 3 2 2 1 2 3 4 4 5 5 6 7 7 8 8 8 8 9 10 12 14 15 15 15 15 16 17 17 17 17 17 16 15 16 17 17 18 18 18 18 17 17 15 14
9 9 9 8 7 6 5 4 3 2 1 1 2 3 5 5 6 6 7 7 8 9 9 9 9 9 11 13 14 15 15 16 17 18 19 18 19 19 19 18 18 17 18 18 19 19 19 19 18 18 17 16
9 9 9 9 8 7 5 4 3 2 1 2 3 4 5 6 7 8 8 8 9 9 10 10 10 10 11 13 14 15 15 16 17 18 19 19 20 20 19 19 19 19 19 19 20 20 20 20 20 19 19 18
9 9 8 8 7 6 5 4 3 3 3 4 5 6 6 7 8 9 9 9 10 10 11 11 12 12 12 13 15 16 16 16 17 18 19 19 20 20 20 20 20 20 20 21 21 21 21 21 21 21 20 20
8 8 7 6 6 5 5 4 4 4 4 5 6 7 8 9 9 10 11 11 11 12 12 13 14 15 15 15 16 17 17 17 18 18 19 20 20 20 21 20 21 21 21 22 22 22 22 22 22 22 22 21
8 7 6 6 6 6 6 6 6 7 7 7 8 9 10 10 12 12 13 14 14 14 15 16 17 17 18 18 18 18 19 19 19 19 20 20 20 20 21 21 21 21 22 22 23 23 23 23 24 24 23 23
8 7 7 7 7 7 7 8 8 8 9 9 10 11 12 13 14 15 16 16 17 17 17 18 19 19 19 19 19 19 19 20 20 20 20 20 20 20 20 20 21 21 22 22 23 23 24 24 25 25 25 24
9 9 9 9 8 8 8 8 9 9 11 11 13 13 14 15 16 16 17 17 18 18 18 18 19 19 19 19 19 19 19 20 20 20 20 19 19 19 19 20 20 20 21 22 22 23 23 24 25 26 26 26
10 9 9 9 8 9 9 9 10 11 12 13 14 14 15 16 16 16 17 17 17 17 17 18 18 18 18 18 19 19 19 19 20 20 20 19 19 19 19 19 20 20 20 21 21 22 23 23 24 25 26 27
9 9 9 9 9 9 10 10 11 12 12 13 14 14 15 14 14 14 15 15 16 16 17 17 17 17 17 17 18 19 19 19 20 20 20 20 20 20 20 20 21 21 21 21 21 22 22 23 23 24 25 27
9 9 9 9 10 10 10 11 11 12 12 13 13 13 13 12 12 12 13 14 15 16 17 17 16 16 17 17 18 19 19 20 20 20 21 21 21 22 22 22 22 22 22 23 23 22 22 23 23 23 24 25
9 9 9 9 10 10 10 10 11 11 11 11 11 11 11 11 11 12 13 14 14 15 15 15 16 16 16 17 18 19 19 20 20 21 21 22 22 23 23 23 24 24 24 24 24 24 24 24 24 24 24 25
8 8 8 9 9 9 9 9 9 9 8 8 8 8 9 9 9 10 11 12 13 14 14 15 16 16 17 17 18 19 19 20 21 21 21 22 23 24 24 24 25 25 25 25 25 25 25 25 25 25 25 25
8 7 7 6 5 5 5 5 6 6 6 7 7 8 9 9 10 10 11 12 13 14 14 15 16 17 17 18 19 19 19 20 20 21 21 22 23 24 25 25 25 25 25 25 26 26 26 26 26 26 26 26
5 3 1 1 2 4 5 5 6 7 7 8 9 9 10 11 12 13 13 14 15 16 16 16 17 17 18 18 19 20 20 20 21 21 22 23 23 24 25 25 25 25 25 25 25 25 26 26 26 26 26 26
4 3 4 5 5 6 6 6 7 7 7 7 8 9 10 11 12 13 14 15 16 17 17 18 18 18 18 19 19 20 20 20 21 22 22 23 24 24 25 25 25 25 25 25 25 25 25 25 25 25 25 25
6 6 7 7 7 7 7 7 7 7 7 7 8 9 10 11 12 13 14 15 16 16 17 18 18 18 19 20 21 22 22 22 22 22 22 23 24 24 25 25 25 25 25 25 25 25 25 25 25 26 25 25
6 7 7 7 7 7 7 7 8 8 8 9 10 11 12 13 15 16 17 18 19 19 20 20 20 20 21 22 23 23 24 25 24 24 24 23 23 23 24 24 24 24 25 25 25 25 26 26 26 26 27 27
5 5 6 6 7 7 7 8 9 10 11 12 13 14 16 17 18 19 20 21 22 22 23 23 23 23 24 24 25 25 26 26 26 26 27 25 24 24 24 24 25 25 25 26 26 26 26 26 27 27 28 28
3 3 4 4 6 7 7 9 10 12 13 15 16 17 19 20 21 22 23 24 25 25 25 26 26 26 26 27 28 28 28 28 28 28 29 28 27 27 27 26 27 27 26 27 28 28 28 28 28 28 28 28
1 2 3 4 6 8 9 11 13 15 17 18 20 21 22 23 24 25 25 27 27 27 28 27 28 28 28 29 29 30 29 29 28 29 29 30 29 29 30 30 29 29 29 30 31 31 30 29 30 30 30 29
2 3 5 6 8 11 13 15 17 19 21 23 24 25 26 26 27 28 28 28 28 28 28 28 28 29 29 29 29 30 30 29 29 29 29 30 30 30 31 31 31 31 31 32 33 34 34 33 33 32 30 31
5 7 9 11 14 15 17 19 21 23 25 27 28 29 29 29 29 28 28 27 26 25 25 25 26 26 27 27 28 28 28 28 28 29 29 29 30 30 30 31 31 31 31 32 35 36 36 33 32 33 32 31
10 13 15 17 19 21 22 25 26 28 30 31 31 31 30 29 28 26 24 24 23 23 23 23 23 24 25 25 26 27 27 28 28 28 29 29 29 30 30 30 30 30 31 32 32 30 27 25 27 32 33 30
15 17 19 21 23 25 27 28 30 31 33 33 33 32 30 27 25 23 22 22 22 22 22 22 22 23 23 24 25 26 27 27 28 28 28 28 29 29 30 30 30 30 30 29 26 24 23 24 24 23 24 27
18 20 22 24 26 28 30 31 33 34 34 34 33 30 28 25 24 22 22 22 22 22 22 23 23 23 24 24 24 25 26 27 27 28 28 28 28 29 29 29 29 29 29 28 25 23 22 22 19 16 17 20
22 24 26 28 29 31 32 33 34 34 33 33 31 27 25 23 23 22 22 22 22 22 22 23 23 24 24 24 24 24 25 25 26 27 28 28 28 28 28 27 26 26 26 28 25 19 17 17 18 18 14 13
26 28 30 32 33 34 34 34 34 34 33 31 28 25 23 22 22 22 22 22 22 22 22 22 22 22 22 22 22 21 22 22 23 24 25 26 27 27 27 26 27 27 26 28 27 23 20 17 16 17 15 15
30 32 33 34 35 35 34 34 33 31 30 28 26 24 23 22 22 22 22 21 21 21 21 21 21 21 21 21 21 21 21 21 21 22 23 24 25 26 26 27 28 29 27 27 28 29 29 25 23 23 21 21
34 35 35 35 34 33 31 30 29 27 26 25 24 23 23 22 22 21 22 21 21 21 21 21 21 22 22 22 22 22 22 21 21 21 22 22 23 24 25 25 26 27 26 24 24 25 28 31 32 31 29 25

ECMWFFLT2_850_spd_081.txt.gz
Wind_Speed
11 10 10 9 9 8 7 6 5 4 4 4 4 5 5 5 6 6 7 7 7 6 6 7 7 8 9 9 10 10 10 11 12 12 13 13 13 14 15 15 15 15 15 15 15 15 15 14 13 11 10 10
10 10 10 10 9 8 7 6 5 5 5 5 5 6 6 7 7 8 8 9 9 8 7 7 7 8 10 11 11 11 11 12 13 14 14 15 14 14 15 15 15 16 16 16 16 16 15 15 15 13 11 10
10 11 11 10 9 9 8 7 7 6 6 6 6 7 7 8 9 9 10 10 10 9 8 8 8 8 10 11 12 11 11 12 14 15 15 16 15 15 15 15 15 15 16 16 16 16 16 16 16 15 14 12
9 11 11 10 10 9 8 8 7 7 7 7 7 7 8 9 10 11 11 11 12 12 11 10 9 9 10 11 12 11 11 11 13 14 15 16 16 15 15 15 16 15 16 16 17 16 16 17 17 16 15 15
9 11 10 10 9 9 9 9 8 8 8 8 8 8 8 9 10 10 12 13 13 14 14 12 11 10 9 10 11 11 11 11 12 13 14 15 15 15 15 15 16 16 15 15 16 17 16 17 18 18 17 17
10 10 10 9 9 9 9 9 9 9 9 9 9 9 10 9 8 9 11 14 15 15 16 14 13 12 11 11 11 12 12 12 12 13 13 14 15 15 15 16 16 17 17 16 15 16 16 16 18 18 18 18
10 8 8 8 9 9 9 9 9 9 9 9 10 11 11 9 8 11 13 15 16 15 15 15 14 14 14 13 12 13 14 14 13 13 14 13 14 15 15 16 16 17 18 19 18 17 17 17 17 18 18 19
8 8 9 8 9 8 8 9 9 10 10 11 11 12 12 11 12 14 13 16 17 15 15 15 16 17 16 16 15 14 15 16 15 15 16 15 15 16 16 16 16 16 17 18 19 19 18 18 18 17 18 19
8 10 9 8 9 9 9 10 10 11 12 12 13 12 12 13 14 14 12 15 16 14 14 15 16 16 16 16 17 17 16 16 17 17 18 18 17 17 17 17 17 17 17 18 18 19 19 19 19 19 19 19
9 10 8 10 10 9 10 10 10 10 11 13 13 13 13 12 12 12 10 13 15 14 14 13 13 13 13 14 16 17 17 16 17 17 18 18 19 18 19 18 18 18 17 18 18 19 20 20 20 20 20 20
10 10 10 11 10 9 9 9 9 9 10 12 13 12 12 9 8 8 7 9 12 12 12 11 11 11 13 14 14 15 17 18 17 17 18 19 19 19 20 20 20 20 19 19 19 19 20 20 20 20 21 21
9 10 10 10 9 10 9 8 8 9 9 9 10 11 10 8 5 5 6 7 9 10 10 11 13 13 13 14 15 16 16 18 18 17 18 19 20 20 21 22 22 23 22 22 21 21 20 20 21 21 21 21
9 9 9 8 9 9 8 8 7 7 5 3 6 10 10 7 6 5 5 7 8 9 11 13 14 15 14 14 15 15 16 16 17 18 18 19 20 20 21 21 22 23 24 24 24 24 23 22 21 22 22 22
7 7 8 8 7 7 5 5 4 3 2 2 5 8 8 7 7 6 6 8 9 10 12 12 13 13 12 13 12 12 14 14 17 18 19 19 20 20 21 22 22 23 24 24 25 25 25 23 22 22 22 23
7 7 6 6 5 4 3 2 1 1 1 3 5 6 7 7 7 8 8 10 11 12 13 12 11 12 12 12 10 9 11 15 18 20 20 21 22 22 22 22 23 23 24 24 24 24 26 26 24 23 23 23
7 5 4 2 1 0 1 2 2 3 3 5 7 8 8 9 10 10 11 12 13 14 14 14 14 15 15 13 11 11 14 19 21 22 22 22 23 25 25 25 24 23 23 23 23 23 25 27 26 26 25 24
6 5 4 4 4 4 5 5 5 6 7 8 10 11 11 12 13 14 15 15 16 17 17 18 18 18 18 16 15 17 20 23 23 23 22 22 23 24 22 22 21 21 21 22 22 22 23 26 28 28 27 27
7 6 5 5 5 5 5 6 7 8 9 10 12 15 16 16 17 18 19 19 20 20 20 20 21 20 20 20 21 23 23 24 24 24 24 24 24 21 19 19 18 18 20 21 22 21 22 24 26 27 28 29
7 6 4 4 4 4 5 6 7 9 10 12 14 16 19 20 21 23 23 23 23 22 23 23 23 23 23 24 25 26 25 26 26 25 25 24 23 23 22 23 21 19 19 21 21 21 22 22 24 27 29 30
6 5 4 3 4 5 6 7 8 10 12 14 17 18 22 24 25 27 26 26 26 25 25 25 25 25 25 28 28 27 27 27 26 25 25 24 24 25 25 24 24 23 23 24 23 20 20 22 26 30 31 31
5 4 4 4 6 7 8 10 11 13 16 17 21 23 25 28 28 29 28 28 27 27 26 26 25 25 27 28 28 27 27 27 26 25 25 25 24 24 24 24 25 25 24 23 22 20 22 26 30 33 32 31
3 3 4 6 9 11 13 15 17 18 20 21 24 27 29 30 30 30 29 28 27 26 25 24 23 24 25 27 26 25 26 25 24 23 23 24 24 24 25 25 25 25 25 26 27 28 29 31 34 35 32 30
5 6 8 10 13 16 17 20 22 23 25 26 28 30 31 31 30 29 28 27 26 24 24 23 22 23 24 24 24 24 24 23 23 23 24 25 26 26 25 26 26 26 26 27 29 30 33 34 35 34 30 26
11 13 15 16 19 21 22 24 26 26 27 30 31 32 32 31 29 28 26 25 24 23 23 22 21 22 23 23 23 23 23 23 23 24 25 25 25 25 25 25 24 23 22 23 26 30 32 30 27 25 24 25
18 21 22 23 25 26 27 26 26 27 29 32 32 31 31 30 28 26 24 23 22 22 22 21 21 22 22 22 22 22 22 23 23 23 23 24 23 23 22 20 19 18 19 21 24 26 25 22 21 22 24 25
24 25 27 28 29 29 30 27 25 28 30 31 32 30 28 28 27 25 23 22 22 21 21 21 21 21 21 21 21 22 22 21 21 21 21 21 21 21 19 19 19 19 19 19 19 20 22 23 22 20 18 19
26 28 29 31 31 31 31 29 27 29 29 30 30 28 26 26 26 25 23 23 23 22 21 21 21 20 20 20 20 21 20 20 20 19 19 19 19 20 20 19 18 16 14 15 16 17 19 19 18 16 13 14
30 32 33 33 34 34 33 32 31 31 30 30 29 27 25 25 25 24 24 23 23 22 22 21 21 21 21 20 20 20 20 19 19 18 17 17 18 18 19 18 17 14 13 14 15 14 15 15 16 16 13 12
33 34 35 36 37 36 35 34 33 32 32 30 29 27 26 24 24 24 23 23 22 22 22 22 21 22 22 21 20 20 20 20 19 18 17 18 19 19 19 19 19 19 17 16 15 15 16 15 14 14 14 16
34 36 37 39 38 37 36 34 32 30 30 29 28 27 26 24 24 23 23 22 22 22 23 23 22 22 22 21 21 20 20 20 19 19 18 19 20 20 19 20 20 20 17 16 15 16 18 17 17 19 20 20
35 37 39 40 38 35 33 31 30 28 28 28 27 27 26 25 24 23 23 23 22 22 24 24 23 22 22 21 21 21 20 20 20 20 21 21 21 20 20 19 19 18 16 16 15 14 17 19 20 22 22 20

ECMWFFLT2_850_spd_084.txt.gz
Wind_Speed
12 11 11 11 10 9 8 7 6 5 5 4 4 4 5 5 5 6 6 7 7 8 9 10 11 12 12 11 10 10 10 10 10 9 9 8 8 8 8 8 9 10 10 11 10 9 7 5 4 6 7 7
12 11 10 9 8 7 7 7 6 6 5 5 5 6 6 6 7 7 8 9 8 9 10 10 11 12 13 12 10 9 10 11 11 10 9 9 8 9 9 9 10 10 11 11 11 11 11 9 7 6 7 7
10 9 8 7 7 7 6 6 6 6 6 6 6 7 8 8 9 10 11 11 10 9 9 10 10 11 12 13 11 9 10 10 11 11 11 10 10 10 10 10 10 11 11 11 12 12 13 13 11 8 7 8
8 8 8 7 7 6 6 6 6 6 7 7 8 9 10 10 12 13 14 13 11 10 9 9 10 11 12 13 12 10 10 11 12 12 12 11 11 10 11 11 11 11 11 12 12 12 13 13 13 11 10 10
7 7 7 8 7 7 7 6 6 7 8 9 9 10 10 11 14 14 15 15 15 14 14 12 12 12 12 13 13 12 11 10 11 12 11 12 11 11 11 12 11 10 10 11 12 13 13 13 14 14 13 12
6 7 7 7 8 7 7 7 7 8 9 10 11 11 11 11 12 11 11 16 18 18 18 18 16 14 14 13 13 13 12 10 11 11 11 11 12 12 12 12 13 13 12 11 11 12 13 13 14 14 14 14
4 4 4 5 6 6 7 8 8 9 10 10 12 12 12 11 10 9 11 16 19 19 19 20 19 17 16 15 13 12 12 12 10 10 10 10 11 12 12 12 13 14 14 15 14 14 13 13 14 14 15 15
2 3 3 3 5 6 5 7 8 9 11 11 12 12 12 11 11 12 13 16 18 19 18 19 20 18 17 17 15 13 14 15 13 12 13 12 13 13 13 13 13 14 15 16 16 17 16 15 14 15 15 15
4 5 4 3 4 5 4 7 8 8 11 13 12 11 12 13 13 13 12 14 17 18 17 16 17 17 16 17 18 18 17 17 16 16 16 16 16 16 16 16 16 15 14 15 16 17 18 17 16 16 16 16
5 6 5 4 4 3 4 6 5 5 9 13 12 10 11 10 9 10 9 10 13 15 14 12 12 12 13 14 16 17 16 16 17 16 15 15 16 17 17 18 18 17 16 14 14 15 16 16 16 16 16 16
6 6 6 6 6 4 4 3 3 6 8 11 12 10 10 7 3 4 4 6 9 10 10 10 10 12 12 11 12 13 13 15 16 16 14 14 16 17 18 19 19 20 20 19 18 17 16 16 16 16 17 16
4 4 4 5 5 5 5 4 4 3 3 5 9 9 8 7 5 4 3 6 7 7 8 9 11 13 12 10 11 12 12 14 14 15 14 14 16 17 18 19 20 21 22 22 22 22 21 20 17 16 17 17
3 3 3 3 3 3 3 3 2 1 3 4 9 10 8 6 7 7 6 7 8 8 9 9 9 9 9 9 11 11 12 14 14 15 16 17 18 19 19 19 20 20 21 22 23 23 23 24 22 19 18 18
4 4 3 3 2 3 3 2 2 3 4 7 8 8 8 6 5 6 7 8 10 10 10 11 9 8 9 11 11 10 12 15 16 16 19 20 21 21 20 20 20 20 21 21 22 22 23 25 25 24 22 20
6 4 3 3 2 2 2 1 2 1 3 6 7 6 7 9 9 9 11 12 13 14 14 15 14 13 14 15 13 11 12 16 18 20 22 23 22 21 22 23 23 22 21 22 22 23 24 25 26 27 26 25
6 5 4 4 4 5 4 3 3 4 6 8 10 10 10 12 13 15 16 17 18 18 19 19 19 19 18 17 16 15 17 19 21 23 24 22 20 21 23 24 24 23 22 23 23 23 24 24 26 28 29 29
7 7 7 7 7 7 6 5 6 6 7 9 9 12 15 15 17 19 20 21 21 20 20 20 20 19 18 17 18 20 21 22 24 25 24 22 21 22 22 21 20 21 22 22 23 24 24 24 25 28 29 29
10 9 8 7 6 6 5 5 5 6 8 9 10 13 17 18 20 23 24 24 24 22 21 20 19 19 17 18 22 23 24 25 26 25 24 23 22 21 20 20 20 22 23 23 23 23 23 24 26 27 28 28
13 12 11 10 8 7 7 6 7 9 11 13 14 16 19 21 23 26 27 27 26 24 22 21 20 18 18 21 24 24 24 25 25 24 23 21 21 21 21 22 23 23 23 23 23 23 24 25 25 26 27 28
11 10 10 10 10 10 10 11 12 14 16 17 19 21 23 24 26 27 28 28 27 25 23 22 20 19 19 22 24 24 24 23 22 21 20 19 19 21 22 23 23 23 23 24 25 24 23 23 24 26 28 30
8 8 8 9 10 11 13 15 17 18 19 21 23 25 27 28 27 28 28 27 27 26 24 22 21 20 20 23 24 24 23 21 20 18 18 19 19 20 22 23 24 25 25 25 25 25 25 25 26 27 29 31
8 9 10 11 13 15 16 18 19 19 20 23 27 28 30 30 29 30 28 26 27 25 24 23 21 21 21 23 23 23 23 21 19 18 19 21 21 22 23 24 25 25 25 25 25 26 26 26 27 28 29 29
12 12 14 16 18 19 21 22 21 19 21 25 29 30 31 31 31 31 28 26 26 25 24 23 22 22 22 23 23 23 23 22 21 20 20 22 23 23 22 22 22 22 23 23 24 24 26 27 28 28 26 26
19 19 20 21 23 24 25 26 23 20 22 26 29 30 30 30 31 30 28 26 26 24 24 23 22 22 22 23 24 23 23 22 22 21 21 21 22 22 21 21 20 18 19 21 23 25 26 26 25 25 25 25
24 24 25 26 26 27 27 27 25 22 24 27 29 29 28 28 29 29 28 26 26 24 24 23 23 23 23 23 23 23 23 22 22 21 21 20 20 21 21 20 19 17 17 21 24 24 24 24 24 24 21 18
25 26 27 27 28 28 29 28 28 27 27 28 29 28 27 27 27 27 27 26 26 25 24 24 24 23 24 24 23 23 22 22 21 21 20 20 20 20 20 20 19 16 15 18 19 20 25 26 23 19 13 11
26 26 27 28 28 29 30 30 31 31 30 30 30 29 28 27 26 26 26 25 25 24 24 24 24 24 24 23 23 23 23 22 21 20 20 19 19 20 21 21 19 14 12 15 17 19 22 22 23 22 16 12
27 28 28 29 30 31 32 33 35 34 32 31 31 29 28 27 26 26 25 24 24 23 23 24 25 25 24 22 22 23 23 22 21 20 19 18 19 21 22 23 21 17 15 16 17 16 18 18 19 20 15 12
28 29 31 32 33 34 36 37 38 37 35 33 31 30 28 27 26 25 24 23 23 23 22 23 25 25 23 22 21 21 22 21 20 19 18 19 20 21 22 22 23 21 17 16 14 13 17 17 15 16 16 19
30 32 33 35 37 38 40 41 39 37 35 32 30 29 27 26 24 23 23 22 22 22 22 23 26 26 24 23 22 21 21 20 19 19 19 20 21 21 21 21 23 22 18 16 14 13 15 16 17 22 23 24
32 34 35 37 39 39 40 41 39 36 33 30 28 27 26 24 22 21 22 21 21 22 21 22 26 25 24 23 22 21 21 20 19 20 20 20 20 21 20 20 21 22 20 19 18 15 16 18 19 21 21 21

ECMWFFLT2_850_spd_090.txt.gz
Wind_Speed
8 7 7 6 6 6 5 4 5 6 6 6 6 6 6 6 7 7 7 7 6 6 7 8 10 11 11 11 11 11 12 12 11 10 9 9 9 9 8 7 5 4 4 5 6 7 7 7 8 9 9 9
7 7 6 6 4 4 2 4 5 5 5 5 5 6 7 7 8 8 8 7 6 6 7 9 10 11 12 12 12 12 12 12 12 11 10 10 10 9 9 8 8 6 4 4 5 6 6 6 8 9 9 9
2 2 1 1 2 3 4 5 5 5 5 6 6 7 8 9 9 10 9 8 7 8 9 10 12 12 13 13 13 13 13 13 12 12 11 10 10 10 10 9 8 8 7 6 5 6 6 7 7 8 9 9
1 2 4 4 5 5 6 6 6 6 6 7 7 7 8 9 10 10 10 10 11 11 12 13 14 14 14 13 13 12 12 12 12 12 12 11 11 11 10 10 9 9 9 9 8 7 7 7 8 8 9 9
2 4 4 5 5 5 5 6 6 6 6 7 7 7 8 9 9 9 10 11 12 13 14 14 15 15 15 14 13 12 12 12 12 12 12 12 12 12 12 11 10 10 10 10 10 10 9 8 9 9 9 9
4 3 3 3 3 3 5 6 6 7 8 8 9 9 9 10 10 10 10 9 11 13 14 15 16 16 15 14 14 14 14 13 12 12 12 13 13 13 13 13 12 11 11 11 11 11 11 10 9 10 10 10
3 2 1 1 2 2 4 7 7 8 9 10 11 10 10 10 11 11 11 10 11 13 14 15 16 16 16 16 17 17 16 15 15 13 13 14 14 14 14 14 13 12 11 12 12 11 11 11 10 10 10 10
3 3 3 3 3 3 5 7 8 9 9 10 10 10 9 9 9 10 10 11 11 12 14 15 16 17 18 18 19 19 19 18 17 16 16 15 15 15 15 14 14 13 12 12 12 12 12 11 11 11 11 11
1 2 3 3 3 4 5 5 7 8 8 9 9 10 9 8 9 9 10 11 11 13 14 15 17 18 19 19 19 19 19 19 19 19 18 18 17 16 16 16 15 14 14 13 13 12 12 12 11 10 11 11
3 2 2 2 1 3 4 5 6 7 8 9 10 10 10 9 9 10 10 11 12 13 15 16 17 19 19 19 19 19 19 19 19 19 20 20 19 18 17 17 17 17 17 16 15 14 13 13 12 11 10 11
5 3 3 3 3 4 4 5 7 8 8 9 10 10 10 10 10 11 11 12 13 14 15 17 18 19 19 19 19 19 19 19 19 20 20 21 21 20 18 19 20 19 19 19 18 17 16 15 14 12 11 11
5 4 3 3 4 5 5 6 8 8 9 10 11 11 11 10 10 11 12 12 13 14 15 17 18 19 19 20 20 20 20 21 21 21 21 22 23 22 21 21 22 22 21 21 20 20 19 18 16 15 14 14
5 4 4 3 3 3 5 7 8 8 9 11 11 12 11 10 10 10 11 12 13 14 16 17 19 20 21 22 22 22 22 23 23 23 23 24 24 24 24 24 24 24 23 22 22 22 22 21 19 18 17 16
5 6 6 5 4 4 6 7 8 9 10 11 11 11 11 11 12 12 13 14 15 17 18 19 20 22 23 24 24 24 24 24 25 25 25 25 26 26 26 26 25 25 25 25 24 23 23 23 22 21 20 19
6 7 7 8 7 8 8 8 9 10 10 10 10 11 12 13 14 16 17 17 18 20 20 21 22 23 25 25 25 25 25 25 25 25 26 27 27 27 27 27 27 27 27 27 26 25 25 24 24 23 22 22
6 7 7 8 8 9 10 10 10 10 11 11 12 13 14 16 18 19 20 21 22 23 23 23 24 25 25 26 25 25 26 25 25 26 26 26 27 28 28 29 28 28 28 28 27 27 26 25 25 25 24 24
5 5 6 7 8 9 10 11 12 12 13 15 16 18 18 19 20 21 23 23 24 24 25 25 25 25 26 26 26 25 26 26 25 26 26 26 27 28 28 29 29 28 28 28 28 27 27 27 26 26 25 25
5 6 6 7 9 11 12 14 16 17 18 19 20 22 22 22 23 23 24 25 25 25 26 26 25 26 26 26 26 25 26 26 26 26 26 27 27 28 28 28 28 28 28 28 27 27 27 27 27 27 26 26
7 8 9 11 13 15 17 18 20 21 22 23 24 25 25 26 26 26 26 26 26 26 27 27 27 27 27 27 26 26 26 26 26 26 27 27 28 29 28 28 28 28 29 28 28 28 27 28 28 28 28 28
10 11 12 14 16 18 20 21 22 23 24 25 25 26 27 28 28 28 28 28 29 28 28 29 29 29 29 28 27 27 26 26 27 27 27 27 28 30 30 30 29 29 29 29 29 29 29 29 29 29 29 29
14 15 16 18 18 19 20 21 23 24 24 25 25 26 27 28 28 29 29 30 30 30 30 30 30 30 29 29 28 27 27 27 27 28 29 28 27 29 30 31 31 31 30 31 31 31 31 30 30 30 30 29
18 19 20 21 21 21 21 21 22 23 24 24 25 26 27 28 28 28 29 29 30 30 30 30 30 30 29 29 28 27 27 27 27 27 29 30 29 28 29 30 31 31 32 32 33 33 32 31 31 31 30 30
20 21 21 22 22 22 22 23 23 23 24 25 25 25 26 27 28 28 29 29 30 29 29 29 29 29 28 27 27 26 26 26 26 27 27 29 29 29 29 29 30 31 32 34 34 34 33 33 32 32 30 29
22 22 23 23 23 23 23 24 24 24 25 26 27 27 27 28 28 29 30 30 29 29 28 28 28 28 27 26 25 25 25 26 26 26 27 28 29 29 29 28 28 29 31 34 35 35 34 34 33 32 31 30
24 25 26 26 26 26 26 26 26 27 27 28 29 29 29 29 29 29 29 29 28 28 27 27 27 27 26 25 23 23 23 24 25 25 26 27 28 28 29 29 27 27 29 32 34 35 36 35 32 31 30 29
25 26 27 27 27 27 27 27 28 29 29 30 31 30 30 29 28 27 26 26 26 26 26 26 26 26 25 24 22 22 22 23 23 23 25 27 27 27 27 28 26 25 26 28 30 33 36 36 33 30 28 26
26 27 27 27 27 27 28 28 29 31 31 31 31 29 28 27 24 23 23 23 24 24 25 26 26 26 26 25 23 23 23 23 22 22 23 24 25 26 27 26 24 23 22 24 27 27 28 30 32 32 28 24
28 29 29 28 27 27 28 29 30 31 31 29 28 26 25 23 21 20 21 21 21 22 24 25 26 26 26 25 24 23 24 24 23 22 23 22 23 25 26 26 24 22 19 21 22 20 20 22 24 24 24 24
29 31 31 30 28 28 28 29 30 31 29 27 26 25 23 22 19 18 19 20 20 21 23 24 25 26 26 25 24 23 24 24 23 22 22 22 22 23 24 25 25 23 19 18 18 17 18 17 14 17 23 28
30 31 31 31 30 29 30 31 31 29 28 27 26 25 24 22 20 18 18 18 18 19 21 23 24 25 25 24 23 23 23 24 23 22 21 20 21 21 21 22 25 23 20 18 17 16 16 14 14 20 25 25
29 30 30 30 30 30 30 31 30 27 26 26 25 25 24 23 21 19 19 18 17 18 20 22 23 23 23 23 22 22 22 23 22 22 21 20 20 20 20 20 22 22 21 19 18 17 17 18 19 22 23 21

ECMWFFLT2_850_spd_093.txt.gz
Wind_Speed
4 3 3 2 1 1 5 7 7 8 8 7 7 8 9 9 9 9 8 7 8 9 9 10 10 11 12 13 14 15 15 14 14 14 14 15 15 14 13 11 11 12 13 12 12 11 11 11 11 11 11 11
2 4 2 3 5 6 7 8 8 8 7 8 9 10 11 12 12 11 10 9 10 11 11 11 11 11 12 13 13 14 15 14 14 14 14 14 15 15 15 13 11 12 12 13 13 12 11 12 12 12 12 12
4 4 4 4 5 6 6 6 7 8 9 10 11 12 13 13 13 13 12 12 13 13 14 14 14 13 13 13 13 14 15 14 14 14 14 14 15 15 16 15 14 13 13 13 13 13 12 12 13 13 13 13
3 3 4 3 2 4 5 6 8 8 10 11 11 12 12 13 14 14 14 15 16 16 16 17 17 16 16 15 15 16 16 16 15 15 16 16 16 16 16 16 16 15 15 14 14 14 14 13 13 14 14 14
1 1 2 2 2 4 5 7 8 9 10 11 11 11 12 13 14 14 15 16 17 17 18 18 19 19 19 19 18 18 19 19 18 17 16 17 17 17 17 17 16 16 16 16 16 15 14 14 14 14 14 14
1 2 2 2 3 5 6 8 8 10 11 12 12 12 13 13 14 15 15 16 17 18 18 19 19 20 20 21 21 21 21 21 20 19 17 17 18 18 18 18 17 16 16 16 17 16 15 14 14 14 14 14
1 1 2 3 4 6 8 9 10 11 12 13 13 13 14 14 14 14 15 15 16 17 17 18 19 19 21 21 22 23 23 23 22 22 20 19 19 19 19 18 18 17 16 16 16 16 16 15 15 14 14 14
4 5 6 7 8 9 10 11 12 12 13 13 13 13 13 13 13 13 14 15 15 16 16 17 18 19 20 21 22 23 23 23 23 23 23 22 22 21 21 20 19 19 18 17 17 17 16 16 15 15 15 14
7 7 9 11 11 12 13 13 14 14 14 14 14 14 14 13 13 13 14 14 15 16 17 19 19 20 21 22 22 22 22 23 23 24 24 24 24 24 24 22 21 21 20 19 19 18 18 17 16 16 15 15
6 7 8 10 11 13 14 14 14 14 15 15 16 15 15 14 14 14 15 16 17 18 19 20 21 21 22 22 22 23 23 23 23 24 24 25 25 26 26 25 24 23 23 23 22 21 20 20 19 18 17 16
6 7 8 9 10 13 13 14 14 14 15 15 16 16 16 16 16 16 16 17 17 18 19 20 22 22 23 23 23 24 24 24 23 24 24 25 25 26 27 27 26 26 25 25 25 24 23 22 22 21 20 19
8 8 9 10 11 13 14 14 14 15 15 16 17 17 17 17 17 16 16 17 17 18 19 20 22 22 24 24 25 25 25 26 25 25 25 25 26 26 27 27 27 27 27 26 27 26 26 25 24 23 22 22
8 9 10 11 12 13 13 14 15 15 15 16 17 17 17 17 17 17 17 18 18 20 20 22 23 24 25 26 26 26 26 27 27 27 26 26 26 26 27 27 28 28 28 28 28 28 27 27 26 25 24 23
9 10 11 12 12 13 14 15 15 16 16 16 16 16 16 17 18 19 20 21 22 23 24 25 25 26 27 27 28 28 27 28 28 28 28 28 28 28 28 28 28 29 29 29 29 28 28 28 27 26 26 25
10 11 12 13 13 14 14 15 16 16 17 17 17 17 18 19 21 22 23 24 25 26 27 27 28 28 28 29 29 29 29 29 29 29 29 30 30 30 30 30 29 29 30 30 29 30 29 29 28 27 27 26
11 12 13 14 14 15 15 15 16 17 17 18 19 20 22 23 24 25 26 27 28 28 29 29 30 30 30 30 30 30 30 30 30 30 30 30 31 31 31 31 31 31 31 31 30 31 30 30 29 29 28 28
13 14 14 15 16 16 16 16 17 18 19 21 22 23 25 26 28 29 29 30 30 30 31 31 31 32 32 32 32 32 32 32 32 32 32 31 31 31 32 33 32 32 32 31 31 31 31 31 30 30 29 28
13 14 15 16 17 18 18 19 20 21 23 24 25 27 28 29 30 31 32 33 33 33 34 34 34 34 34 34 34 34 34 34 34 34 35 34 34 34 34 34 34 34 34 33 33 32 31 31 31 30 30 30
13 14 16 17 18 19 21 22 23 25 26 27 28 29 30 31 32 33 34 35 36 36 36 37 37 36 36 35 35 35 35 35 35 36 36 36 37 37 37 36 36 36 36 36 35 34 33 33 32 32 31 31
13 15 16 17 19 20 22 24 25 26 28 29 30 31 31 32 32 33 34 35 36 37 37 38 38 38 37 37 36 36 35 35 36 36 37 37 37 38 39 39 38 38 38 39 38 37 36 35 34 34 34 33
15 17 18 19 20 21 23 24 25 27 28 29 30 31 32 33 34 34 35 35 36 37 37 37 38 38 38 38 38 37 36 36 36 36 37 37 37 37 39 39 39 40 40 40 40 40 39 37 37 36 36 35
18 19 20 21 22 23 24 24 25 26 26 28 29 30 31 33 33 34 35 36 36 37 37 37 37 37 38 38 38 37 36 35 35 35 36 37 37 36 37 38 39 40 40 41 42 42 41 40 39 39 38 37
19 20 20 22 22 23 24 25 26 26 27 28 29 29 30 31 31 32 34 35 36 36 36 35 35 36 36 36 36 36 35 34 34 34 34 35 36 35 35 35 36 38 39 41 42 42 42 42 41 40 38 37
19 20 21 21 22 23 24 25 27 27 28 29 30 30 30 31 30 30 31 32 33 33 33 33 33 34 33 33 33 33 33 32 32 33 33 34 34 35 34 34 34 35 37 40 41 41 41 40 40 39 37 36
20 21 22 22 23 23 24 25 26 27 27 28 29 29 30 30 29 29 29 29 29 29 29 30 30 31 31 31 30 30 29 29 30 30 31 32 32 33 34 34 32 32 34 38 40 41 42 40 38 36 34 33
21 22 23 23 24 24 25 26 26 26 26 27 28 28 28 28 27 26 26 27 27 27 27 28 28 29 29 29 28 28 27 27 27 28 29 30 30 30 31 31 30 30 31 33 35 37 41 42 39 35 32 30
21 22 23 24 24 25 27 27 27 27 26 27 27 26 26 25 24 24 24 25 25 26 26 27 28 28 28 28 28 28 27 26 26 27 27 27 28 29 30 29 27 26 25 27 30 29 31 35 37 38 33 27
22 23 23 24 24 26 27 28 28 28 27 26 26 25 24 23 23 23 23 24 24 25 26 27 28 28 28 28 27 27 27 27 27 27 26 25 26 28 28 28 27 24 21 21 23 22 22 24 26 28 30 31
22 23 24 24 25 25 27 28 29 29 29 28 27 26 25 24 24 23 23 23 23 24 25 27 27 28 28 28 27 27 26 27 27 27 26 25 25 25 25 27 27 24 20 18 17 15 17 17 15 18 27 35
23 24 25 25 25 26 28 29 30 30 30 30 29 28 27 26 26 25 24 23 23 24 25 25 26 27 27 27 27 26 26 26 26 26 25 24 25 25 23 24 26 25 21 18 15 13 13 11 13 21 27 28
24 25 26 25 25 26 27 29 30 30 30 29 29 28 28 28 27 27 26 24 24 24 25 25 26 27 26 26 25 25 26 25 25 26 25 24 24 24 23 23 24 24 23 20 16 14 16 16 16 20 22 20

ECMWFFLT2_850_spd_096.txt.gz
Wind_Speed
1 0 0 1 3 5 5 7 8 10 11 12 12 12 12 12 12 13 14 14 15 16 15 14 14 15 15 15 15 16 17 18 18 19 19 19 20 20 19 18 17 18 18 19 19 19 18 17 17 16 16 15
1 2 2 4 6 7 8 9 11 12 13 13 13 13 13 13 13 14 14 15 15 16 16 15 15 15 15 15 16 17 18 18 18 19 19 19 20 21 21 19 18 17 18 18 19 20 20 19 19 18 17 16
5 6 7 8 9 9 11 12 13 14 15 15 15 15 15 15 15 15 15 16 16 17 17 17 17 16 16 16 17 18 18 19 19 19 19 19 20 21 22 22 19 18 18 18 18 19 20 20 20 20 20 19
8 9 9 10 11 12 13 14 15 15 16 15 16 15 15 15 15 16 17 17 18 18 18 19 19 19 19 19 20 20 20 20 20 20 20 20 21 22 22 23 22 20 20 19 19 19 19 20 20 21 21 21
8 8 9 10 11 12 14 15 15 16 16 16 16 15 15 15 15 16 17 17 18 18 19 19 20 20 21 22 22 23 23 23 22 22 21 21 21 22 22 22 22 21 21 20 20 20 19 19 19 20 20 21
8 8 9 11 12 13 14 16 17 18 18 18 17 17 17 17 17 17 17 18 18 19 19 20 21 22 22 23 23 24 24 24 24 23 23 23 23 22 23 23 23 22 21 21 21 21 21 20 20 19 20 20
8 10 11 12 13 14 15 16 18 19 19 19 18 18 18 18 18 18 18 19 19 19 20 20 21 22 23 23 24 23 23 23 23 24 24 24 24 24 24 24 24 24 23 22 22 21 22 22 21 21 20 20
9 10 11 12 13 14 15 16 17 18 18 18 17 17 17 17 18 18 18 18 19 19 20 20 21 22 22 22 23 23 23 24 24 24 24 24 25 25 26 26 26 26 25 24 23 23 23 23 23 23 22 22
9 9 11 11 12 13 14 15 16 17 17 17 17 17 17 17 17 17 18 18 19 19 20 20 21 21 22 23 23 24 24 24 25 25 25 25 25 26 26 27 27 28 27 27 26 25 25 24 24 24 24 23
8 9 10 10 11 11 12 14 15 15 16 16 17 17 17 17 17 17 18 18 19 19 20 20 21 21 22 23 24 25 25 26 26 26 26 26 26 26 26 27 27 28 29 29 29 28 27 27 26 26 25 25
8 9 9 10 10 11 12 13 14 15 15 16 17 17 18 18 18 19 19 19 19 19 20 20 21 22 23 24 24 25 26 27 27 27 27 27 27 27 27 27 27 27 28 29 30 30 29 29 28 28 27 27
9 9 10 10 11 12 13 14 15 16 16 17 18 18 19 19 19 19 19 19 19 19 20 21 22 23 24 25 25 26 27 28 28 29 29 29 29 29 29 28 28 28 28 28 29 29 30 29 29 29 28 28
9 10 11 12 13 14 14 15 16 17 18 18 19 19 20 20 20 19 19 19 20 21 22 23 24 24 26 27 27 28 29 30 30 31 31 32 32 32 32 31 31 31 30 29 29 29 30 30 30 30 29 29
11 12 13 14 15 15 16 17 18 19 19 20 20 20 20 20 21 21 21 22 23 23 25 25 26 27 28 28 29 30 31 32 33 33 34 34 35 35 35 35 34 34 33 32 31 31 30 30 31 31 30 30
12 13 14 15 16 17 18 19 19 20 21 21 22 22 22 23 23 24 24 25 26 27 28 28 29 30 30 31 32 32 33 34 34 35 36 37 37 38 38 38 38 38 37 36 35 34 33 32 32 32 32 32
12 14 15 16 17 18 18 19 20 20 21 22 23 23 24 25 26 28 29 30 31 31 32 32 32 33 33 34 34 35 35 36 36 37 37 38 38 39 39 40 40 40 40 39 38 37 36 35 34 33 33 33
14 15 16 16 17 18 19 19 20 21 22 23 24 26 27 28 29 30 32 33 34 35 36 36 36 37 37 37 37 37 38 38 39 39 39 40 40 40 41 41 41 41 42 41 41 39 38 37 36 35 34 34
16 16 17 17 18 18 19 20 22 23 25 26 27 29 30 31 32 32 33 34 35 36 37 38 39 39 39 39 40 39 40 40 40 41 42 42 42 42 43 43 43 43 44 43 43 42 41 40 38 37 36 35
15 16 16 17 19 20 21 23 24 26 27 28 29 30 32 32 33 34 34 35 35 36 36 37 38 39 40 40 40 40 40 40 40 41 41 42 43 43 43 44 44 44 45 45 45 45 44 43 41 39 38 37
15 16 18 19 20 21 22 24 25 26 27 29 30 31 32 33 33 34 35 35 35 36 36 37 37 37 38 38 39 39 39 39 39 40 40 40 41 42 43 44 44 44 45 46 46 46 46 45 44 42 41 38
16 17 18 19 20 20 22 23 24 25 27 28 29 30 31 32 32 33 34 34 34 34 35 35 35 35 35 36 36 36 37 37 37 38 38 38 38 39 41 42 43 44 44 45 46 46 46 46 45 44 42 40
16 16 17 18 19 21 22 22 23 24 25 25 26 27 28 28 29 30 31 31 31 32 32 32 32 33 33 33 33 33 34 34 34 35 35 36 36 36 37 39 40 41 43 44 45 46 46 45 45 45 44 41
16 17 19 20 21 22 22 22 23 23 24 24 25 25 25 26 26 27 28 28 28 29 29 30 30 31 31 32 32 32 32 32 32 32 33 34 34 34 34 35 36 38 40 42 43 44 44 44 44 43 41 40
18 20 21 22 22 22 23 23 24 25 25 26 26 27 27 27 27 27 28 28 28 28 28 28 29 29 30 30 31 31 31 31 31 31 32 32 32 33 33 33 33 34 37 40 41 41 41 41 40 40 38 36
21 22 23 23 22 22 23 24 24 25 26 26 27 28 28 28 28 28 28 28 28 29 29 29 29 29 29 30 30 30 31 31 31 31 31 31 31 32 32 32 31 32 34 37 39 40 41 39 37 35 32 30
24 24 23 23 22 22 23 24 24 24 25 26 26 27 28 28 28 28 28 28 29 29 29 29 29 30 30 30 30 30 30 30 30 31 31 31 31 31 31 31 30 30 31 33 35 37 40 40 35 29 26 26
26 25 23 22 22 22 23 24 24 25 25 26 26 27 28 28 27 27 27 28 28 28 29 30 30 30 31 31 31 31 31 31 31 31 31 31 32 31 31 30 29 28 27 29 31 30 30 33 33 30 27 24
25 23 22 22 22 23 23 24 25 25 25 26 26 27 27 27 27 26 26 27 27 28 29 30 30 30 30 31 31 31 32 32 31 31 31 30 31 31 31 31 29 26 24 25 25 24 23 25 24 24 26 28
23 22 22 23 23 24 25 25 26 26 25 26 27 27 28 28 28 27 27 27 27 28 28 29 29 29 30 30 30 30 31 32 31 31 30 30 30 29 29 30 30 27 24 22 19 19 20 17 15 18 26 33
23 23 23 24 24 25 26 26 26 26 26 27 28 28 29 29 29 29 29 29 29 29 29 30 30 30 29 29 29 29 30 30 30 31 30 30 29 28 27 28 29 27 25 23 18 17 17 13 14 23 28 28
24 24 25 25 26 26 27 27 27 27 28 28 28 29 29 29 29 29 29 30 30 30 30 30 31 31 30 30 30 30 30 29 29 30 29 29 29 28 28 27 27 27 26 24 20 17 18 16 17 21 23 22

ECMWFFLT2_850_spd_099.txt.gz
Wind_Speed
4 7 9 11 10 10 11 12 13 15 15 15 14 13 13 13 13 13 13 14 14 14 14 13 14 14 15 16 16 16 16 16 16 17 17 17 18 20 20 18 18 18 19 19 20 20 20 21 20 20 20 19
6 7 9 9 9 9 10 12 14 14 15 15 15 14 14 13 13 13 13 13 14 14 14 14 14 14 15 15 15 15 16 16 16 17 17 18 19 19 20 19 19 19 19 20 20 21 21 21 21 21 21 21
8 9 9 8 8 9 10 12 13 14 15 15 15 15 14 14 14 14 14 14 14 14 14 15 15 15 16 16 16 16 16 16 16 17 17 18 18 19 19 19 19 19 20 20 20 21 21 22 22 22 22 22
10 10 9 8 9 9 10 12 13 14 15 15 15 15 15 15 15 15 15 15 15 16 16 16 16 17 17 18 18 18 17 18 18 18 18 18 19 19 19 19 19 19 19 20 20 20 21 22 22 22 23 23
10 8 8 9 10 10 11 12 13 14 14 15 15 15 15 15 16 16 16 17 17 17 17 17 18 18 18 19 19 19 19 19 19 19 19 19 20 20 20 20 20 20 19 20 20 20 20 21 21 22 22 23
8 8 8 10 11 11 11 11 12 13 14 15 15 15 15 16 16 17 17 17 18 18 18 19 19 19 19 19 20 20 20 20 20 20 21 21 21 21 21 21 21 21 20 20 21 21 21 21 21 21 22 22
8 8 8 9 10 10 11 11 12 13 14 15 15 16 16 16 17 17 18 18 18 19 19 19 19 19 19 19 20 20 20 21 21 21 21 22 22 22 23 22 22 22 22 21 21 22 22 22 21 21 22 22
8 8 9 9 10 10 11 11 12 13 14 15 15 16 16 17 17 18 18 18 19 19 19 19 18 19 19 19 19 20 20 20 21 21 22 22 22 23 23 23 24 23 23 23 22 22 23 23 23 23 23 22
8 8 9 10 10 10 11 12 13 14 14 15 15 16 17 17 18 18 18 18 19 19 18 18 19 19 19 20 20 21 21 21 21 22 22 23 23 24 24 25 25 25 25 25 24 24 23 23 24 24 24 24
8 8 9 10 10 11 12 13 14 14 15 16 16 17 17 18 18 18 18 18 18 19 19 19 19 20 20 21 21 22 22 23 23 23 24 24 25 25 25 26 27 27 28 28 27 27 26 25 25 25 25 25
9 9 9 10 10 11 13 14 14 15 16 17 17 18 18 18 19 19 19 19 19 19 20 20 21 21 22 23 23 24 24 25 25 26 26 26 27 27 27 27 28 28 29 29 30 30 29 28 27 26 26 27
9 9 10 10 11 12 13 14 15 16 17 17 18 18 19 19 19 19 20 20 20 21 22 22 23 24 25 26 26 27 28 28 28 29 29 29 29 30 30 30 30 30 30 31 32 32 32 32 31 30 29 29
10 10 10 11 12 13 14 15 16 17 17 18 18 18 19 19 20 20 21 21 22 23 24 25 26 27 28 29 30 30 31 31 32 32 32 33 33 33 33 33 33 33 33 33 34 34 34 34 34 34 33 32
11 11 12 12 13 14 15 16 17 17 18 18 18 19 20 20 21 22 23 24 25 26 27 28 28 29 30 31 32 32 33 34 34 35 35 35 36 36 36 36 36 36 35 35 35 36 36 36 36 36 36 35
12 13 13 14 15 16 16 17 17 17 17 18 19 20 21 23 24 25 26 27 28 29 30 31 31 31 32 32 33 33 34 35 35 36 36 37 37 38 38 38 38 38 38 37 37 37 37 37 37 37 37 37
14 14 15 15 16 16 16 16 16 17 18 20 21 23 24 25 26 27 28 29 30 31 31 32 33 33 33 33 33 34 34 34 35 35 35 36 36 37 37 38 38 38 39 39 39 38 38 38 38 38 38 38
14 15 15 16 16 16 16 17 18 19 21 22 23 24 25 26 27 28 29 30 31 32 32 33 33 33 33 33 33 33 33 33 33 33 33 33 34 34 35 36 37 37 38 38 39 39 39 39 39 38 39 39
15 15 15 15 15 16 17 19 20 21 22 23 24 25 26 27 28 29 29 30 31 31 31 31 32 32 31 32 31 31 31 31 31 31 31 32 32 32 33 34 35 36 37 37 38 38 38 39 39 39 39 39
15 15 15 16 16 18 19 20 21 22 23 24 25 27 28 29 29 29 29 29 29 29 29 29 29 29 29 29 29 29 30 30 30 30 30 31 32 32 32 33 33 34 35 35 36 37 37 38 38 39 39 39
15 15 16 17 18 19 20 20 21 23 24 26 27 28 28 29 29 28 28 28 27 27 27 27 27 27 28 28 28 29 29 30 30 30 30 31 31 32 32 32 33 33 34 34 35 35 36 36 37 38 38 38
16 17 17 18 19 20 20 21 23 24 26 26 27 27 27 27 27 26 26 26 26 26 26 26 26 27 27 27 28 28 29 29 30 31 31 31 31 32 33 33 33 33 34 34 34 34 34 35 36 36 36 36
17 18 19 19 19 20 21 23 24 25 25 25 25 25 24 24 24 24 24 24 25 25 25 26 26 27 27 27 28 28 29 29 30 31 31 31 31 32 33 33 34 35 35 35 35 35 34 34 34 35 35 34
19 19 19 19 20 21 23 24 24 24 24 23 23 23 23 23 23 23 23 24 24 25 25 26 26 26 27 27 28 28 29 29 30 30 31 31 32 32 32 33 34 35 36 36 35 35 34 34 33 33 33 32
20 20 19 20 21 22 24 24 24 23 22 22 23 23 23 23 23 24 24 24 25 25 25 26 26 26 27 27 28 28 29 29 30 31 31 31 32 32 32 32 33 34 35 37 36 36 34 32 32 32 31 30
21 21 21 22 23 25 25 24 23 22 22 23 23 23 24 24 25 25 25 25 25 26 26 26 26 26 27 28 28 29 29 30 30 31 31 31 31 32 32 31 32 32 34 36 37 37 36 34 32 30 28 25
23 23 23 24 25 25 24 23 22 22 22 23 23 24 25 25 26 26 26 26 26 26 26 26 26 27 27 28 28 29 30 30 31 31 31 32 32 31 32 31 31 32 32 33 34 35 36 35 31 28 26 24
25 24 25 26 26 24 23 22 22 22 22 23 24 24 25 26 26 27 27 27 27 27 27 27 27 27 27 28 29 29 30 30 31 31 31 32 32 32 32 32 31 31 31 31 31 30 28 29 29 29 28 25
25 26 26 26 25 23 23 23 22 22 22 23 23 24 25 26 26 27 28 27 28 28 27 27 27 27 28 28 29 30 30 31 31 31 31 32 32 32 33 33 32 30 30 29 29 26 23 24 23 21 22 25
27 27 27 26 24 23 23 23 23 23 23 23 24 25 26 26 27 28 28 28 28 28 28 27 27 27 28 28 29 30 30 30 31 31 31 32 32 32 32 33 33 31 30 28 26 25 22 17 14 15 21 27
29 29 28 27 25 24 24 23 23 23 24 25 25 26 26 27 27 28 29 29 29 28 28 28 27 27 28 28 28 29 29 29 30 31 31 31 32 32 32 32 33 31 30 29 26 25 22 16 16 21 25 24
31 31 30 28 27 26 25 25 24 24 25 26 27 27 27 27 28 28 29 29 29 28 28 28 28 27 28 28 28 29 29 29 30 30 30 31 31 31 31 31 32 31 30 29 26 24 23 21 20 23 23 21

ECMWFFLT2_850_spd_102.txt.gz
Wind_Speed
4 5 7 9 7 6 6 8 10 11 12 12 11 11 11 10 10 11 11 11 10 10 10 11 11 12 13 12 13 13 13 13 14 14 14 14 14 14 15 15 16 16 17 18 19 19 19 20 19 19 20 20
7 7 9 9 7 6 7 8 10 12 12 12 12 12 11 11 11 12 12 11 11 11 11 12 12 12 13 13 13 13 13 13 14 14 14 14 14 14 14 15 15 15 16 17 18 19 19 20 20 20 19 19
9 9 9 8 6 7 7 9 10 11 12 13 13 12 12 12 13 13 13 13 13 13 13 13 14 14 14 14 14 14 14 14 15 15 15 15 15 14 14 14 15 15 15 16 16 17 18 18 19 20 20 19
10 9 8 7 7 8 8 9 10 11 12 13 13 13 13 14 14 14 14 14 15 15 15 15 15 16 16 16 16 16 16 16 17 17 17 17 17 17 16 16 15 16 16 16 16 16 17 17 17 18 19 19
10 8 7 7 8 8 8 9 10 11 12 12 13 13 13 14 14 14 15 15 15 15 16 16 16 16 17 17 17 18 18 18 18 18 18 18 19 19 19 18 17 17 17 17 17 17 16 17 17 17 17 18
8 7 7 7 8 8 8 9 10 11 11 12 12 13 13 14 14 14 15 15 15 16 16 16 17 17 17 18 18 18 19 19 19 19 19 20 20 20 20 20 20 19 18 18 19 19 18 17 17 17 17 17
7 7 7 8 8 8 8 9 10 10 11 12 12 12 13 14 14 14 15 15 15 16 16 17 17 17 17 18 18 19 19 19 19 20 20 20 21 21 21 21 21 21 21 20 20 20 20 20 19 19 19 18
7 7 7 8 8 8 8 9 10 10 11 11 12 12 13 14 14 14 14 15 15 15 16 16 16 17 17 17 18 18 19 19 19 20 20 21 21 22 22 22 23 23 23 23 22 22 21 22 22 21 21 21
8 8 8 8 8 8 8 9 10 10 11 12 12 13 13 13 13 14 14 14 14 15 15 16 16 17 18 18 19 19 20 20 21 21 22 22 22 23 23 24 24 25 25 25 25 24 24 23 23 23 23 23
9 8 9 9 9 9 9 9 10 11 11 12 13 13 13 13 13 13 13 14 14 15 16 17 18 18 19 20 21 21 22 22 23 24 24 25 25 25 25 25 26 26 26 27 27 26 26 25 25 25 25 24
9 9 9 9 9 9 10 10 11 12 12 13 13 13 13 13 13 13 14 15 16 17 18 19 19 21 21 22 23 24 24 25 25 26 26 27 27 27 28 28 28 28 28 28 28 28 28 28 27 27 26 26
10 10 10 9 10 10 11 11 12 13 13 14 13 13 13 13 14 15 16 17 18 19 19 20 21 22 23 24 25 26 26 26 27 27 27 27 27 28 28 29 29 29 30 30 30 30 30 30 30 29 29 28
11 11 11 11 11 11 12 12 13 14 14 14 13 13 13 15 16 17 18 19 20 21 21 23 23 24 25 26 26 27 27 27 27 27 26 27 27 27 27 28 28 28 29 30 30 31 31 31 32 31 31 31
12 12 12 12 12 13 14 14 14 14 13 13 13 14 15 16 17 18 19 20 22 23 24 25 26 26 26 26 26 26 25 25 25 26 26 26 26 27 27 27 28 28 28 29 29 30 30 31 32 32 32 32
13 13 13 13 14 14 15 15 14 13 13 13 15 16 17 18 19 20 21 23 24 26 26 27 27 26 25 25 25 24 24 24 24 25 25 25 26 26 27 27 27 28 28 28 29 29 29 30 30 31 32 32
14 14 14 15 15 15 15 14 13 13 14 15 16 17 18 19 20 22 24 26 27 27 27 27 26 25 24 24 23 23 23 23 23 23 24 24 25 25 26 26 27 27 27 28 28 29 29 29 30 30 31 31
16 16 16 16 16 16 14 14 13 14 15 16 17 18 19 21 23 25 27 27 27 27 26 25 24 24 23 23 22 22 22 22 22 23 23 24 24 24 25 26 26 27 27 27 28 28 29 29 29 30 30 31
17 17 17 17 16 15 14 14 15 15 16 17 18 20 21 24 25 26 27 26 26 25 25 24 23 23 22 22 22 22 22 22 22 23 23 24 24 24 25 26 26 27 27 27 27 28 28 28 29 29 30 31
19 18 18 17 16 15 15 15 16 17 17 18 20 22 24 25 26 26 25 24 24 23 23 23 22 22 21 21 22 22 22 22 23 23 24 24 25 25 26 26 26 27 27 27 27 28 28 28 29 29 29 30
19 19 18 17 16 16 16 17 17 18 18 20 22 24 25 25 25 24 23 22 22 22 21 21 21 21 21 21 22 22 22 23 23 24 24 25 26 26 26 27 27 28 28 28 28 28 28 28 29 29 30 30
20 20 19 18 18 17 18 18 18 19 20 22 23 25 25 24 23 22 22 22 21 21 20 20 21 21 21 21 22 22 23 23 23 24 25 25 26 26 26 28 29 29 29 29 29 29 29 29 29 29 30 30
21 20 20 19 19 19 19 19 20 21 22 23 24 24 23 22 22 22 22 21 21 21 20 20 21 21 21 21 22 22 23 24 24 24 25 25 26 26 26 27 29 29 30 30 30 30 29 28 29 29 30 30
22 22 21 21 21 21 21 21 21 22 23 24 23 22 21 21 21 21 21 20 20 20 20 21 21 21 21 22 22 23 23 24 25 25 25 26 26 27 27 27 28 29 30 30 31 31 30 29 28 28 29 29
24 23 22 22 23 23 22 22 22 23 23 23 22 20 20 21 21 21 20 20 20 20 21 21 21 21 21 22 22 23 24 24 25 25 25 26 26 27 27 27 29 29 29 31 31 31 32 32 30 30 28 26
25 24 24 24 24 23 23 23 24 24 24 23 21 21 21 21 21 21 21 21 21 21 22 22 22 23 23 23 23 24 24 24 25 25 25 26 26 27 27 27 28 28 29 30 29 30 33 31 28 27 26 25
26 25 25 25 24 24 25 25 25 25 25 23 22 22 22 21 21 21 22 22 23 23 24 24 24 25 24 25 25 25 26 26 26 26 26 26 26 27 27 27 28 28 28 28 28 31 30 23 17 19 23 25
27 26 26 26 26 26 27 27 27 26 25 23 22 22 22 22 21 22 23 23 24 24 25 25 26 26 26 26 26 26 27 27 27 27 27 27 26 26 27 27 28 29 27 26 28 26 21 17 16 18 16 14
28 28 28 28 29 29 29 29 28 27 26 24 23 23 22 22 21 22 23 23 24 25 25 26 26 27 27 27 27 26 26 27 27 27 27 27 26 26 26 26 27 29 27 26 25 21 18 17 16 13 8 13
30 31 31 31 32 32 32 31 30 29 27 25 24 24 23 22 22 23 23 24 25 25 26 26 26 27 27 27 27 27 26 27 27 27 26 26 26 25 25 25 26 28 28 27 24 21 18 14 10 11 13 22
34 34 34 34 34 34 33 33 33 30 27 26 25 25 25 24 24 24 24 24 25 26 26 26 26 26 27 27 27 27 26 26 27 27 26 25 25 25 25 25 25 26 27 28 27 24 21 16 15 18 19 20
37 37 37 37 37 35 35 35 34 31 28 28 28 28 28 27 26 26 26 26 26 26 26 26 27 26 27 27 27 27 27 27 27 27 26 25 24 24 25 25 25 26 26 26 25 25 25 23 22 23 22 19

ECMWFFLT2_850_spd_105.txt.gz
Wind_Speed
5 5 7 8 6 3 3 4 5 6 6 7 7 7 7 7 8 8 8 8 8 8 8 9 10 10 10 10 11 11 11 11 11 11 11 12 12 13 13 13 14 14 14 14 15 15 15 15 15 15 14 15
6 7 8 7 4 3 3 3 4 5 6 6 6 6 7 7 8 8 8 8 8 8 8 8 9 9 9 9 10 11 11 12 12 12 11 11 12 12 13 13 14 14 14 15 15 15 15 15 14 14 15 15
8 8 8 5 3 3 3 3 4 5 5 6 6 6 6 6 7 8 8 8 8 8 8 9 9 9 9 9 10 10 11 12 12 13 12 12 12 12 12 13 13 14 14 14 15 15 15 15 14 14 15 15
9 8 7 4 3 3 3 4 5 5 6 6 6 6 6 7 7 8 8 8 8 8 8 9 9 10 10 10 10 10 11 12 12 13 13 13 13 12 12 12 13 13 14 14 14 14 14 15 15 15 15 15
10 8 6 4 3 4 4 4 5 5 6 6 7 7 7 7 7 8 8 8 8 8 9 9 9 10 11 11 12 12 12 13 13 13 14 14 14 14 14 13 13 13 14 15 15 14 14 14 15 15 15 15
9 8 6 5 5 5 4 5 5 6 7 7 7 8 8 8 8 8 8 8 8 9 9 9 10 11 11 12 13 13 13 13 14 14 14 15 15 15 15 15 15 14 14 15 16 16 16 15 16 16 16 16
9 8 6 6 6 6 6 5 6 6 7 7 8 8 8 9 8 8 8 8 8 9 9 9 10 10 11 12 12 14 14 14 14 15 15 15 16 16 16 17 17 16 16 16 16 17 17 17 17 17 17 17
9 8 7 7 7 7 7 7 7 7 8 8 8 8 9 8 8 8 8 9 9 10 11 11 12 12 13 13 13 14 15 15 16 16 17 17 17 18 18 18 19 19 18 18 18 18 18 18 18 18 18 18
10 9 9 8 8 8 8 8 8 8 8 9 9 9 8 8 7 8 8 9 10 11 12 13 14 14 15 16 16 17 17 18 18 18 18 18 18 19 19 20 20 20 20 20 20 19 19 19 19 19 19 19
11 10 10 9 9 9 9 9 9 9 9 9 9 9 8 7 7 7 8 9 10 11 12 13 15 16 17 18 19 20 20 20 20 20 19 19 19 19 20 20 20 21 21 21 21 20 20 20 20 20 20 21
12 12 11 10 10 10 10 10 10 10 10 10 9 8 7 7 7 8 9 10 10 11 13 14 16 19 20 20 20 20 20 19 19 19 19 19 19 19 19 20 20 20 21 21 21 21 21 21 21 21 21 21
14 13 12 12 12 11 11 11 11 11 11 11 9 8 7 7 8 9 10 11 11 13 15 17 19 21 21 21 20 20 19 19 19 19 19 19 19 19 20 20 20 20 21 21 21 22 22 22 22 22 21 22
15 14 14 14 13 13 12 12 12 12 12 11 10 8 8 9 10 11 12 12 14 16 18 20 21 21 20 20 19 19 19 19 19 19 19 19 19 20 20 20 20 20 20 21 21 22 22 22 22 22 23 22
16 15 15 15 15 14 14 14 13 13 13 12 11 10 10 11 11 12 13 14 17 19 20 21 21 20 19 19 19 18 18 19 19 19 19 19 19 20 20 20 21 21 21 21 21 22 22 22 22 23 23 23
17 17 17 16 16 15 15 15 14 14 13 12 12 12 12 12 13 13 14 16 18 20 21 20 19 19 18 18 19 18 18 18 18 19 19 19 19 19 20 20 21 21 21 21 22 22 23 22 23 23 23 23
18 18 18 17 17 17 16 15 15 15 14 13 13 13 13 13 14 15 16 18 19 20 19 18 18 18 18 17 18 18 18 18 18 19 19 19 20 20 20 20 21 21 21 22 22 23 23 23 23 23 24 24
20 20 19 18 18 18 17 17 17 16 15 15 15 14 15 15 16 17 19 20 20 19 18 17 17 17 18 17 17 17 17 17 18 18 19 19 20 20 21 21 21 22 22 22 22 23 23 24 24 24 24 24
21 21 20 20 20 19 18 18 18 17 16 16 16 16 16 16 17 19 20 20 19 18 18 18 18 17 17 17 17 17 17 17 17 18 18 19 19 20 21 21 21 22 22 22 22 23 23 24 24 25 25 25
23 22 22 21 22 21 19 19 19 18 18 17 18 17 17 17 18 20 20 19 18 17 18 18 18 17 17 17 17 17 17 17 17 18 19 19 20 20 20 22 22 22 23 23 23 23 24 24 24 25 25 26
24 24 24 24 23 23 21 20 20 20 19 18 19 19 18 18 19 20 19 18 17 17 17 17 17 17 17 17 17 17 17 17 18 19 19 20 21 21 21 22 23 23 24 24 24 24 24 24 24 25 25 26
26 26 25 26 25 24 22 22 21 21 20 20 20 20 20 19 20 20 18 17 17 17 16 16 16 17 17 17 17 17 18 17 18 19 19 20 21 22 22 23 24 24 24 25 25 25 25 24 24 24 24 25
28 27 27 27 27 25 23 23 23 22 22 21 21 21 21 20 21 20 18 17 17 16 16 16 16 16 17 17 17 18 18 19 19 19 20 20 21 22 22 23 24 24 25 26 26 27 27 26 25 25 25 24
29 29 29 29 28 26 25 25 24 24 23 23 23 22 22 21 21 20 18 17 17 16 16 16 16 16 17 17 18 18 19 20 20 21 21 22 22 22 23 23 25 25 25 26 27 28 27 27 28 27 24 22
31 31 31 30 29 28 27 26 26 25 24 24 25 24 23 22 21 20 18 18 17 16 16 16 17 17 17 17 18 19 19 19 20 21 21 22 22 23 23 23 24 25 25 26 27 25 25 28 27 23 21 22
33 33 32 31 30 29 28 27 27 27 26 27 27 26 23 23 22 20 19 18 17 16 16 16 17 17 17 18 18 19 20 20 20 20 21 21 21 22 23 23 24 24 24 25 24 23 26 27 20 15 18 21
35 34 32 31 30 29 28 28 29 29 29 29 29 27 24 24 23 21 20 19 17 16 16 16 17 18 18 18 19 20 21 21 22 22 22 22 21 21 22 22 23 24 23 22 22 24 25 20 13 12 17 21
36 35 33 32 31 31 30 30 32 31 31 32 30 28 26 25 25 23 21 20 19 18 17 18 19 19 19 19 20 21 22 24 24 24 24 23 23 22 21 21 20 23 23 21 21 21 18 14 15 15 12 11
37 36 34 34 33 32 31 30 33 33 33 34 32 30 28 27 26 25 24 22 21 20 19 20 20 21 21 21 21 21 22 24 24 24 24 24 23 23 22 20 17 20 23 23 20 17 14 14 14 11 6 8
38 38 37 37 37 36 35 34 36 36 36 36 34 32 31 29 28 27 26 25 24 23 22 22 22 22 23 22 22 22 22 23 24 25 24 24 24 23 22 21 19 19 21 22 20 17 14 11 8 9 12 18
40 40 40 41 41 40 39 40 40 40 39 37 34 32 31 30 29 28 28 28 27 26 25 25 24 24 24 24 23 23 23 23 25 26 26 25 24 24 23 22 22 20 18 20 22 20 17 13 13 16 19 19
43 43 43 44 44 43 42 43 43 42 40 38 36 35 33 33 33 31 31 31 30 29 28 27 27 26 25 25 25 25 25 25 25 26 26 25 24 23 23 22 22 21 18 17 18 18 19 19 20 22 21 18

ECMWFFLT2_850_spd_108.txt.gz
Wind_Speed
2 5 6 6 4 2 1 1 1 0 1 1 2 2 2 2 2 2 2 2 2 2 3 4 4 4 4 5 5 5 5 5 6 6 7 7 8 8 9 9 10 10 10 10 10 11 10 10 10 10 10 10
4 6 6 5 3 2 2 2 1 0 0 1 1 1 2 1 1 1 1 1 1 1 2 2 3 3 3 4 4 4 4 4 4 5 6 6 7 8 9 9 9 10 10 10 10 11 11 11 11 11 10 10
7 7 6 5 4 3 3 3 2 2 1 1 1 1 1 1 1 0 0 0 0 1 1 1 2 2 3 3 4 5 5 5 5 5 6 6 7 8 9 9 10 10 10 11 11 10 11 11 11 11 11 10
8 7 6 5 5 4 4 4 3 3 2 2 2 2 2 2 1 1 0 0 1 1 1 1 2 2 2 3 4 5 6 7 7 7 7 7 7 8 8 9 10 10 10 11 11 11 11 11 11 11 11 12
8 7 7 7 6 6 5 5 4 4 3 3 3 3 3 3 2 1 1 0 0 0 1 1 2 2 3 4 4 5 6 7 7 8 8 9 9 9 9 9 10 10 10 11 11 11 11 11 11 11 11 11
10 9 9 8 7 6 5 5 5 5 4 4 4 3 3 3 2 1 2 1 1 1 1 2 3 3 4 4 5 5 6 7 8 8 9 9 10 10 10 10 11 11 11 11 11 11 11 11 12 12 12 12
12 12 10 8 8 7 6 6 6 6 5 5 4 4 3 3 3 1 1 2 2 2 1 2 3 3 4 5 6 7 8 9 9 10 10 11 11 11 11 11 12 12 12 12 13 13 13 12 12 12 13 13
15 13 11 9 9 8 8 7 7 7 6 6 5 5 4 4 3 2 2 2 3 3 3 3 4 5 6 7 8 9 10 11 11 12 12 12 12 12 12 12 12 13 12 13 13 14 14 14 14 14 13 13
15 14 12 11 10 10 9 9 9 8 8 7 7 6 5 4 4 4 3 3 4 4 4 5 6 7 7 9 10 11 11 11 11 11 12 12 12 12 12 12 13 13 13 13 13 13 14 14 14 15 15 14
16 15 13 12 12 11 11 11 11 10 9 8 8 7 6 5 5 5 5 4 5 5 5 6 8 9 10 11 11 11 11 11 11 11 11 11 12 12 12 12 13 13 13 13 13 13 14 14 14 15 15 15
16 15 15 13 13 13 12 12 12 12 11 10 9 8 7 7 6 6 6 6 6 7 7 8 10 11 12 12 12 12 11 11 11 11 11 12 12 12 12 12 12 13 13 13 13 13 13 14 14 14 15 15
16 17 17 14 14 14 14 14 14 13 12 11 10 9 9 8 8 8 8 8 8 9 9 10 12 13 13 13 12 12 12 11 12 12 12 12 12 13 13 13 13 13 13 13 13 13 13 14 14 14 15 15
18 19 17 16 16 16 15 16 15 14 13 13 11 10 10 9 9 9 9 9 10 10 11 12 13 14 13 12 12 12 12 12 12 12 13 13 13 13 14 14 14 14 14 14 14 14 14 14 14 14 14 15
20 20 18 18 19 17 16 18 16 15 16 15 13 11 10 10 10 10 10 10 11 12 13 14 14 14 13 12 12 12 12 13 13 13 13 14 14 15 15 15 15 15 15 15 16 16 15 15 15 15 15 15
22 21 19 20 20 18 19 19 16 17 18 16 15 12 11 12 11 11 11 12 13 14 15 15 14 13 13 13 12 12 13 13 13 13 14 14 15 15 15 16 16 16 16 16 17 17 17 17 17 16 16 16
24 22 22 22 21 20 21 19 18 19 19 18 16 13 13 13 13 13 13 13 14 15 15 15 14 13 13 13 13 13 13 13 13 13 14 14 15 15 16 16 16 17 17 17 17 18 18 18 18 18 18 18
25 24 24 23 22 22 22 20 20 21 20 20 18 15 15 15 14 15 15 14 15 16 15 14 13 13 12 13 12 12 13 13 13 13 13 14 15 15 15 16 16 16 17 17 18 18 18 19 19 19 19 19
26 27 26 24 23 24 23 21 22 22 22 21 19 17 17 16 16 16 16 16 16 16 15 14 13 13 13 12 12 12 13 13 13 13 13 13 14 15 15 15 16 16 16 17 17 17 18 18 19 19 20 20
28 28 27 25 25 26 23 23 24 24 23 22 20 19 18 18 18 17 17 17 17 17 16 14 13 13 13 12 12 12 12 13 13 13 14 13 14 14 15 15 16 16 17 17 17 18 18 18 18 19 19 20
28 28 28 26 26 27 25 24 25 25 25 23 22 22 19 19 19 18 18 18 17 17 15 15 14 13 13 13 13 13 13 13 13 13 14 14 14 15 15 16 16 16 17 17 17 18 18 18 18 18 18 18
29 29 29 28 28 28 27 26 26 26 26 25 25 24 22 20 20 19 19 18 18 16 15 15 14 13 13 13 13 13 13 13 14 14 14 15 16 16 16 17 17 17 17 18 18 18 19 18 18 18 18 18
30 30 30 29 29 30 29 28 28 28 28 28 27 26 24 22 21 20 19 19 18 16 16 15 14 13 13 13 13 13 13 13 13 14 15 15 16 17 17 18 19 18 18 19 19 19 19 19 19 19 19 17
31 32 32 32 31 32 32 31 30 30 31 30 28 27 27 24 22 21 20 20 19 17 16 15 14 13 13 13 13 13 14 14 14 14 15 16 17 18 18 19 20 19 19 19 20 20 20 20 19 19 18 16
34 34 34 34 34 35 35 33 32 32 32 31 29 28 29 26 23 23 22 21 20 19 18 16 15 14 14 14 13 13 14 14 14 14 16 16 17 18 18 19 21 20 20 20 20 20 20 19 19 17 17 17
36 37 37 36 37 37 36 34 33 33 33 32 30 30 30 27 25 25 24 23 22 21 20 18 17 16 15 15 14 14 14 14 14 14 15 16 17 18 18 19 21 20 20 20 20 20 20 18 17 15 15 16
38 39 38 37 37 36 35 34 33 33 33 32 31 32 32 29 27 28 27 26 24 23 22 21 19 18 17 16 16 16 15 15 15 14 15 16 17 18 19 19 20 20 20 19 21 22 21 19 17 14 12 12
40 40 39 38 37 36 35 35 34 33 33 33 33 33 34 32 30 30 29 28 26 25 24 23 22 20 19 18 18 18 17 17 16 16 16 16 17 18 18 19 20 21 20 19 20 19 17 18 18 14 7 5
40 40 40 39 38 37 36 36 35 35 36 36 36 37 37 35 33 32 31 29 28 27 26 25 24 22 21 20 20 20 19 19 19 18 18 17 18 18 18 19 20 21 21 19 18 16 14 14 13 8 4 7
41 41 41 41 39 38 38 38 37 38 39 40 40 40 39 37 35 34 32 30 29 28 27 27 26 25 24 23 22 22 22 22 21 21 20 19 19 19 19 19 19 20 22 21 18 16 14 11 8 7 10 14
42 42 42 43 42 42 42 42 42 42 43 43 42 41 39 37 35 34 32 31 31 30 29 29 28 28 27 26 25 24 24 24 24 23 21 20 20 20 20 20 19 19 21 22 21 18 16 13 12 15 16 17
43 43 44 45 45 45 45 45 45 44 43 43 42 41 40 39 37 36 35 33 33 32 31 31 31 31 30 29 27 26 26 26 26 25 23 22 21 21 21 21 21 20 19 21 21 21 19 17 16 18 18 18

ECMWFFLT2_850_spd_111.txt.gz
Wind_Speed
7 6 5 6 7 7 6 4 3 3 3 3 3 3 3 3 3 2 2 1 1 1 1 1 1 1 1 1 1 1 1 2 2 3 3 4 4 4 4 4 4 4 4 5 5 5 5 5 4 5 4 5
8 6 6 7 7 7 7 5 4 4 4 4 4 4 4 4 4 4 4 3 3 2 2 1 1 1 1 1 0 0 0 1 2 2 3 4 4 5 5 5 5 4 4 5 5 5 5 5 5 5 4 5
10 8 7 7 7 8 7 6 5 5 5 5 5 5 5 5 5 5 5 4 4 4 3 3 3 2 2 2 1 1 1 1 2 3 3 4 5 5 6 6 6 6 6 5 6 6 6 6 6 6 6 5
11 9 8 8 9 9 8 8 6 6 6 6 6 6 6 6 6 6 6 6 5 5 4 4 4 3 3 3 2 3 3 3 3 4 4 5 5 6 6 7 7 7 7 7 7 7 7 7 7 7 7 7
12 10 10 10 10 10 10 9 8 7 7 7 7 7 7 7 7 7 7 6 6 5 5 4 4 4 4 3 4 4 4 4 4 5 6 6 7 7 7 7 8 8 8 8 8 7 8 8 8 8 8 8
13 12 12 11 11 11 11 10 9 9 8 9 9 8 8 8 8 7 7 6 6 6 5 5 5 4 4 4 4 5 5 5 5 6 6 7 8 8 9 9 9 9 9 9 9 9 8 8 8 8 9 9
14 13 13 12 12 12 11 11 10 9 9 10 9 9 9 8 8 8 7 7 6 6 6 6 6 5 5 5 5 6 6 6 7 7 8 8 8 9 9 10 10 10 9 10 10 9 9 9 9 9 9 9
15 14 14 14 13 13 12 11 11 10 10 10 10 10 10 9 8 8 8 8 7 7 7 7 7 7 7 6 6 7 7 8 8 9 9 9 9 9 9 10 10 10 10 10 10 10 9 9 9 9 9 9
16 16 16 16 15 15 14 13 12 12 11 11 11 10 10 10 9 9 9 9 8 8 8 8 8 8 7 7 7 8 9 9 9 9 9 10 9 9 9 10 10 10 10 10 10 10 10 10 9 9 8 8
19 19 18 17 17 16 15 15 14 13 13 12 12 11 11 11 10 9 10 9 9 8 8 9 8 8 8 8 8 9 9 9 9 9 9 9 9 9 9 10 10 10 10 10 10 10 10 10 10 10 9 9
21 21 19 18 18 18 17 16 15 14 14 14 13 12 12 12 11 10 10 10 10 9 9 9 9 8 8 9 9 9 9 9 9 9 9 9 9 9 9 9 9 10 9 10 10 10 11 11 11 11 11 10
22 21 20 20 19 19 19 18 18 16 15 15 14 13 13 13 12 11 11 11 10 10 10 10 10 9 9 9 10 10 9 9 9 9 9 9 9 9 9 9 9 10 9 9 10 10 10 11 11 11 11 11
22 22 21 21 21 20 21 21 19 17 16 16 15 14 14 14 13 12 12 12 11 11 11 11 11 10 10 10 10 10 9 9 9 9 9 9 10 10 10 10 10 10 10 10 10 10 10 10 11 11 11 11
23 23 23 22 22 22 22 22 20 18 18 17 16 15 15 15 15 14 13 13 12 12 12 11 11 11 11 10 11 10 10 10 10 10 10 10 10 10 10 10 11 11 11 11 11 11 11 11 11 11 11 12
25 25 24 23 23 23 23 23 21 20 19 19 17 16 16 16 16 15 14 14 14 13 13 12 12 12 12 11 11 11 11 11 11 11 11 11 11 11 11 12 12 12 12 12 12 12 12 12 12 12 12 12
26 26 25 25 25 25 24 23 22 22 22 21 19 17 18 18 17 16 15 15 15 14 14 14 13 13 13 12 12 12 12 12 12 12 12 12 12 12 12 12 12 13 13 13 14 14 14 14 14 14 14 13
27 27 27 27 27 26 26 25 24 24 24 23 20 19 19 19 19 18 17 16 16 16 15 15 14 14 13 13 12 12 12 12 12 12 12 12 12 12 12 13 13 13 13 14 14 14 14 15 15 15 15 15
29 29 29 29 28 27 28 27 25 26 26 24 22 21 20 20 20 19 18 17 18 17 16 16 16 15 14 14 13 13 13 12 12 12 12 12 12 12 13 13 13 13 13 14 14 14 14 14 15 15 16 16
31 31 31 31 30 30 29 28 27 28 27 26 25 23 22 21 22 21 19 19 19 19 17 17 17 15 15 14 13 13 13 12 12 12 11 12 12 12 13 13 13 13 14 14 14 14 14 15 15 15 16 16
32 33 33 33 32 31 30 30 29 29 29 28 27 26 24 23 23 22 21 20 21 20 19 18 17 16 15 14 13 13 12 12 12 11 11 11 12 12 12 13 13 13 13 14 14 14 14 14 15 15 15 16
33 34 34 34 34 33 32 31 31 30 30 30 29 28 26 25 24 24 22 22 22 21 20 20 18 17 16 15 14 13 12 11 11 11 11 11 11 12 12 12 13 13 13 14 14 14 14 14 15 15 15 15
35 35 35 35 35 34 33 33 32 32 32 32 31 30 28 26 26 25 24 23 23 23 23 21 19 18 17 15 14 13 12 11 11 11 11 11 11 12 12 12 12 13 13 14 14 14 14 14 15 15 15 15
35 36 36 36 36 36 36 35 34 34 35 34 34 32 29 28 27 26 25 25 25 25 25 23 21 19 18 17 16 15 13 12 12 11 11 11 11 12 12 12 12 13 13 14 14 14 14 14 15 15 15 15
37 38 38 39 39 39 39 38 37 37 37 36 35 33 31 30 29 27 26 27 27 27 26 25 22 20 20 18 17 16 15 14 13 12 12 12 12 12 13 12 13 13 14 14 14 14 15 15 15 15 16 15
40 41 41 41 41 41 40 39 38 38 37 37 36 35 33 32 30 28 28 29 29 29 28 26 24 23 22 21 19 18 17 15 15 14 14 14 13 13 14 13 13 14 14 14 15 15 14 14 14 15 15 15
42 43 43 42 41 40 39 38 38 37 37 36 36 36 35 33 32 31 30 30 31 31 29 28 26 25 24 23 22 21 20 19 18 17 16 16 15 15 15 15 14 14 14 14 15 16 16 15 13 13 15 14
42 43 43 42 42 41 39 38 37 37 36 36 36 37 36 35 35 34 32 32 33 33 31 30 29 27 26 25 24 24 24 22 21 20 19 18 17 17 16 16 15 14 14 14 15 15 15 15 14 14 13 12
42 42 42 42 42 42 41 39 38 37 38 39 39 40 39 39 38 37 35 34 34 35 34 32 31 29 28 28 27 27 27 26 24 22 21 20 20 19 18 18 17 16 15 14 14 13 11 12 12 11 10 10
42 42 43 43 43 43 42 41 41 42 42 43 44 43 42 41 40 39 38 36 36 36 36 34 33 31 30 30 30 30 29 28 26 24 23 23 22 21 21 20 18 17 16 16 15 13 11 9 8 8 10 13
43 43 43 44 45 45 45 46 46 45 45 45 44 43 42 42 42 41 40 39 38 38 38 37 36 34 33 33 33 33 32 30 29 28 27 26 24 23 22 21 20 19 18 17 17 16 15 13 12 12 13 14
44 45 45 46 46 47 47 48 48 46 45 45 45 44 44 44 43 43 42 41 40 39 39 39 38 37 36 35 35 35 34 33 32 31 29 27 26 25 24 24 23 22 20 19 18 17 17 17 16 16 15 15

ECMWFFLT2_850_spd_117.txt.gz
Wind_Speed
18 18 18 17 15 14 11 8 6 5 5 6 7 8 7 6 5 5 5 5 4 2 2 1 1 1 1 1 2 2 1 1 1 1 1 1 1 2 2 2 3 3 3 2 2 2 2 2 3 3 3 3
19 19 19 18 16 14 12 9 8 7 6 6 7 8 8 7 7 6 6 5 4 4 3 3 2 2 2 2 3 3 2 2 1 1 1 2 2 2 3 2 3 3 3 3 3 3 2 2 3 3 4 4
20 19 18 17 15 14 12 10 8 8 8 8 8 8 8 8 7 6 6 6 7 7 6 5 4 3 3 4 4 4 5 4 3 3 2 3 3 3 3 3 3 3 4 4 4 4 3 3 3 4 4 4
20 20 18 16 15 14 12 10 10 10 10 10 9 9 9 8 8 7 7 7 8 7 7 6 5 5 4 5 5 5 6 5 4 4 3 3 3 3 3 3 3 3 4 4 4 4 4 4 4 4 4 5
21 20 19 17 16 14 14 13 12 12 12 12 10 10 10 9 9 8 8 8 9 8 8 7 6 6 6 6 6 6 6 5 5 5 4 4 4 4 4 4 4 4 4 4 5 5 5 5 5 5 5 5
22 21 20 19 17 16 16 16 15 14 14 13 12 11 11 10 10 9 10 10 10 9 8 8 8 7 7 7 7 7 7 6 6 6 5 5 5 5 5 5 5 4 4 4 4 5 5 5 5 5 5 5
25 23 21 20 19 18 17 17 16 15 15 14 13 12 11 11 11 10 10 11 11 10 10 10 9 9 9 8 8 8 8 7 7 7 6 6 6 6 6 5 5 5 5 4 4 5 5 5 5 5 5 5
26 24 23 22 20 19 18 17 16 16 16 15 14 13 12 12 12 11 11 12 12 11 11 11 10 10 10 9 9 9 8 8 7 7 7 7 6 6 6 6 6 6 5 5 5 5 5 5 5 5 5 5
28 26 25 23 22 21 19 18 17 16 17 16 15 14 13 13 12 12 12 12 13 12 12 12 12 11 11 10 10 10 9 9 8 8 7 7 7 6 6 6 6 6 6 6 6 6 5 5 5 5 5 5
29 28 26 25 23 22 21 20 19 19 18 17 16 15 14 14 13 13 13 13 13 13 13 13 13 12 12 11 11 10 10 9 8 8 8 7 7 7 7 7 7 7 7 6 6 6 6 6 6 5 5 5
29 28 26 25 24 23 23 22 22 21 19 18 17 16 16 15 14 14 13 14 14 14 14 14 14 13 13 12 12 11 10 10 9 8 8 7 7 7 7 7 7 7 7 7 7 7 6 6 6 6 6 6
29 27 26 26 25 25 24 24 23 21 19 19 18 17 17 17 16 15 14 14 14 15 15 15 15 14 14 13 13 12 11 10 9 8 8 8 8 7 7 7 7 8 8 8 7 7 7 7 7 6 6 6
28 27 27 27 27 26 25 25 23 21 21 20 20 19 19 18 17 16 15 15 15 15 16 16 15 15 15 14 13 13 12 11 10 9 9 8 8 8 8 8 8 9 9 9 8 8 8 8 8 8 7 7
29 28 27 27 27 27 26 25 24 23 23 22 22 21 19 18 18 17 16 16 16 16 16 16 16 16 16 15 14 13 12 12 11 10 10 9 9 9 9 9 10 10 10 10 10 10 9 9 9 8 8 8
30 29 28 27 27 27 27 26 25 25 24 24 23 22 20 20 19 18 18 17 17 16 17 17 17 16 16 15 15 14 13 12 12 11 11 10 10 10 11 10 11 11 11 11 11 11 10 10 10 10 9 8
32 30 28 28 28 28 28 27 26 26 26 25 24 23 22 21 21 20 19 18 18 17 17 18 17 17 17 16 16 15 14 13 12 12 11 11 11 11 11 11 11 11 11 11 11 11 11 11 11 10 10 10
34 32 30 30 30 29 29 28 28 27 27 26 24 24 23 23 22 21 20 19 19 18 18 18 19 18 18 17 17 16 15 14 13 13 12 12 12 12 12 12 12 12 11 11 11 11 11 11 11 11 11 11
36 35 34 32 31 30 29 29 29 28 27 26 25 25 25 25 24 23 22 21 20 19 19 19 19 19 19 18 18 17 15 14 14 13 13 13 13 13 12 12 12 12 11 11 11 11 11 11 11 11 11 11
38 38 36 34 32 31 30 30 29 29 28 27 27 27 27 26 26 25 24 23 22 21 20 20 20 20 19 19 20 18 17 15 15 14 14 14 14 13 13 12 12 12 12 11 11 11 11 11 11 11 11 12
40 39 37 35 33 32 31 31 30 30 29 28 28 28 29 29 28 27 26 25 24 23 22 21 21 20 20 21 21 20 18 16 16 15 15 15 14 14 13 13 13 12 12 11 11 11 11 10 10 11 11 11
41 41 38 36 34 33 32 32 31 31 30 30 30 30 30 30 30 29 28 27 26 25 24 23 21 21 21 22 22 21 19 17 17 17 16 16 15 15 14 14 13 12 12 11 11 11 11 11 11 11 11 11
42 41 39 37 36 35 34 33 33 32 32 32 32 32 32 32 31 31 30 29 28 27 26 25 23 23 23 23 23 23 21 19 18 18 18 17 17 16 15 14 13 13 12 12 11 11 11 11 11 11 11 11
42 42 41 39 37 37 36 35 35 34 34 34 34 34 33 33 33 32 32 31 30 29 28 27 26 25 25 25 25 25 24 22 21 20 19 18 18 17 16 15 14 14 13 12 12 12 12 11 11 11 11 12
44 44 43 41 40 40 39 38 38 38 37 37 37 36 35 35 34 34 34 32 32 31 30 30 29 28 27 27 27 27 26 24 22 21 20 19 19 19 18 17 16 15 14 13 13 13 13 12 12 12 13 13
47 47 45 44 44 43 42 41 41 41 40 39 39 38 37 37 36 36 35 34 34 33 33 32 31 31 30 29 29 28 28 26 23 22 21 21 21 21 20 19 18 16 16 15 14 14 14 14 13 14 14 14
49 48 47 46 45 44 43 43 43 42 41 40 39 39 39 39 38 37 37 36 36 36 35 35 34 33 32 31 30 30 29 28 26 25 24 24 24 24 23 21 20 19 19 17 16 16 15 14 15 16 15 15
51 49 48 47 46 45 44 44 43 42 42 41 41 41 40 39 39 38 38 37 38 38 37 37 36 35 34 34 32 32 31 31 30 28 27 27 26 26 25 24 23 23 22 19 17 17 16 16 16 16 17 17
51 50 48 47 46 45 45 45 44 43 43 43 43 43 42 41 40 40 39 39 39 39 39 38 38 37 37 36 35 34 33 33 33 31 30 29 29 29 28 28 27 26 24 22 21 18 16 17 16 16 16 16
51 50 49 48 48 47 47 47 47 46 46 46 45 44 43 42 42 42 41 41 41 40 40 39 39 38 38 38 37 37 36 35 34 33 32 32 32 32 31 30 29 28 26 25 24 22 18 17 15 15 16 14
52 52 51 51 51 51 51 51 51 51 49 48 47 45 43 43 43 43 42 42 42 42 41 41 40 40 40 39 39 38 38 37 36 36 35 34 34 34 34 33 31 31 29 27 27 27 26 23 20 17 16 14
53 53 53 54 54 54 54 54 54 52 49 48 47 46 45 44 44 44 44 44 43 43 43 42 42 41 41 41 41 40 40 40 38 38 37 36 36 36 35 36 36 34 32 31 30 30 30 29 27 24 21 19

ECMWFFLT2_850_spd_123.txt.gz
Wind_Speed
20 19 18 17 17 17 17 16 15 13 10 6 4 3 1 1 2 4 5 7 9 9 8 6 6 7 7 7 9 9 9 9 9 8 8 8 7 7 6 6 6 6 7 7 7 7 7 7 6 6 6 6
21 20 19 18 17 17 17 16 14 13 10 7 5 4 2 2 3 4 5 7 7 7 5 3 5 6 6 7 8 8 8 8 8 8 7 6 6 6 6 6 6 6 6 6 6 7 6 6 6 6 6 6
23 21 20 18 18 18 17 16 15 13 11 9 6 5 3 2 3 5 6 6 7 6 4 3 3 3 5 7 8 8 8 7 6 6 6 6 5 5 6 6 6 6 6 6 6 6 6 6 6 6 6 5
24 21 19 18 17 18 18 16 15 13 11 9 6 5 4 3 4 6 6 6 6 5 5 4 4 4 4 6 8 8 8 7 6 5 5 5 5 5 6 5 6 6 6 6 5 6 6 6 6 6 6 6
25 21 19 18 17 17 17 17 16 14 11 8 7 6 5 5 5 6 7 6 5 5 5 5 5 5 5 5 7 8 8 7 6 5 5 5 5 5 5 5 6 6 5 5 5 5 5 6 6 6 6 6
25 22 20 19 18 18 19 18 17 14 11 9 8 7 6 5 5 6 7 7 6 6 6 6 6 6 7 6 5 7 7 7 6 5 5 5 5 5 5 5 5 5 6 6 6 5 6 6 6 6 6 7
26 24 22 21 20 20 21 20 18 14 12 11 9 8 8 6 6 6 8 8 7 6 6 6 6 7 7 6 5 6 7 7 6 5 5 5 5 5 5 6 6 6 6 6 6 6 6 6 6 6 7 7
28 26 24 22 22 22 22 20 18 15 14 12 11 10 9 8 7 7 8 8 7 6 6 6 7 7 7 7 6 7 7 6 6 6 6 5 5 5 6 6 7 7 7 7 7 7 6 6 6 7 7 7
30 28 26 24 23 23 22 21 19 17 15 14 13 12 10 9 8 9 9 9 7 6 6 7 7 8 8 8 7 6 6 6 6 6 5 5 6 6 6 6 7 7 7 7 7 7 6 6 6 6 6 7
32 31 29 27 24 24 23 21 20 18 17 16 15 14 12 11 10 10 10 10 8 7 7 7 8 9 9 8 7 7 6 6 6 6 6 6 6 6 7 7 7 7 7 7 7 7 7 6 6 6 5 6
34 32 29 28 26 26 25 23 22 21 19 18 18 16 14 13 12 11 11 11 9 7 7 7 8 9 9 9 8 7 7 6 6 6 6 6 6 7 7 7 7 7 7 7 7 7 6 6 5 5 5 5
35 32 29 29 29 28 27 25 24 23 21 21 20 17 15 15 14 13 12 11 10 8 8 8 8 9 9 9 9 8 8 7 7 7 7 7 7 7 7 8 7 7 7 7 7 6 6 6 5 5 5 4
37 33 30 30 31 30 29 27 25 23 22 22 21 19 18 17 15 14 13 11 10 9 8 8 8 9 10 10 10 9 9 8 8 8 8 7 8 8 8 8 8 7 7 7 6 6 6 6 6 5 5 5
39 35 33 32 32 32 31 29 26 24 24 24 23 21 19 18 16 15 13 12 11 9 8 8 8 9 10 11 11 10 10 9 9 9 9 9 9 8 8 8 8 8 7 7 7 7 6 6 6 6 6 5
40 37 35 33 33 34 32 31 28 26 26 26 24 22 20 18 17 16 14 13 12 10 9 8 8 9 10 11 11 11 11 11 10 10 10 10 10 9 9 9 8 8 8 8 7 7 7 7 7 6 6 6
42 40 37 34 34 34 33 32 29 28 28 27 25 22 20 19 18 17 16 14 13 11 10 9 9 9 10 11 12 12 12 12 12 11 11 11 10 10 10 9 9 8 8 8 8 8 8 7 7 7 7 7
43 41 39 36 35 35 34 33 31 29 29 28 26 23 21 20 19 19 17 16 14 12 11 11 10 10 10 11 13 13 13 13 13 12 12 12 11 11 11 10 10 9 9 9 8 8 8 8 8 8 8 8
45 43 42 38 36 36 35 34 33 31 31 30 27 25 22 21 21 20 19 17 16 15 14 13 12 11 10 11 13 14 14 14 14 14 13 13 13 12 12 12 11 11 10 10 9 9 9 9 9 9 9 9
47 46 44 41 38 37 37 36 34 32 31 31 29 26 23 22 22 22 20 19 18 17 16 15 13 12 11 12 13 14 15 15 15 15 14 14 14 14 14 13 13 12 12 11 11 11 10 10 10 10 10 10
48 47 46 43 40 39 39 38 35 33 32 33 31 28 24 24 24 23 22 21 20 19 18 17 15 14 13 13 14 14 15 15 16 16 15 15 15 15 15 14 14 14 13 13 13 12 12 12 11 11 11 11
48 48 47 45 42 41 41 40 37 35 34 35 34 31 27 27 27 25 24 24 23 21 20 19 17 16 15 15 15 15 15 16 16 17 17 16 16 16 16 16 15 15 14 14 14 14 14 13 13 13 12 12
48 48 47 47 45 44 44 42 39 38 37 37 36 34 31 29 28 27 26 25 24 23 22 21 20 18 18 17 17 17 16 16 17 17 18 17 17 17 17 17 16 16 16 16 16 16 16 15 15 14 14 14
48 49 49 48 47 47 47 45 42 42 41 39 38 36 34 32 30 29 28 27 26 26 24 23 22 21 20 20 19 19 19 18 18 18 18 18 18 18 18 18 17 17 18 18 18 18 18 17 16 16 16 16
49 50 50 50 50 50 50 48 46 45 44 41 40 39 36 34 33 32 30 29 29 28 27 25 24 23 23 22 22 22 21 20 19 17 17 17 18 18 18 18 19 19 19 19 19 19 19 18 18 19 18 17
50 51 51 52 52 52 52 51 48 47 45 42 40 40 40 37 35 35 33 32 31 30 29 27 26 26 25 25 25 24 23 21 20 19 18 18 18 19 20 20 20 19 20 21 21 20 20 20 20 20 20 19
51 51 51 51 51 50 51 51 50 48 46 43 39 39 41 40 38 38 36 34 33 32 31 30 29 28 28 27 27 26 25 24 23 22 21 21 20 20 21 21 21 21 21 22 22 21 21 21 21 23 22 21
51 51 50 49 49 48 47 48 49 47 45 44 43 42 41 42 42 41 39 36 35 34 33 32 31 31 30 30 29 28 27 27 26 25 24 24 22 21 21 22 22 22 22 23 22 21 22 22 21 23 25 25
50 49 48 48 48 47 47 47 47 47 46 47 48 46 44 44 45 44 42 39 37 36 35 34 34 33 32 32 31 30 30 29 28 27 27 26 24 24 24 23 23 23 23 24 24 22 22 21 20 20 23 25
49 48 48 48 48 48 49 49 49 49 50 49 49 49 46 45 45 44 42 40 39 39 37 36 36 35 34 33 33 33 32 31 30 29 28 28 27 27 25 24 24 24 24 25 25 25 23 20 19 21 22 21
48 48 49 49 49 50 50 51 52 52 51 50 48 47 44 43 43 43 43 42 42 41 40 38 37 36 36 35 35 35 34 33 32 32 31 29 30 29 27 26 27 27 26 25 27 29 28 25 23 22 21 19
48 49 50 50 50 51 51 51 52 50 49 48 47 45 43 42 42 43 43 43 43 42 41 40 38 38 37 37 37 36 36 36 35 33 32 31 31 30 29 30 31 29 27 28 29 29 30 31 30 27 24 21

ECMWFFLT2_850_spd_126.txt.gz
Wind_Speed
22 22 23 22 19 17 14 14 13 13 11 8 7 6 5 4 2 2 4 9 11 10 9 9 9 9 9 9 9 9 9 9 9 9 10 11 13 13 12 12 12 12 12 12 12 11 11 11 10 10 10 10
24 24 23 22 19 17 15 13 12 13 11 7 6 6 5 4 3 3 4 6 9 10 7 7 8 8 9 10 9 9 9 9 8 9 10 11 12 11 10 11 11 11 11 12 11 11 11 10 10 10 10 10
25 24 23 21 19 17 16 14 14 14 12 9 8 7 6 5 4 4 5 6 9 10 6 5 7 8 9 9 9 9 8 8 8 9 10 10 10 9 9 9 10 10 10 11 11 11 10 10 10 10 10 9
26 25 24 21 19 17 16 15 16 15 13 11 10 9 7 6 6 6 6 8 9 9 7 6 7 7 9 9 9 9 9 9 9 10 10 10 9 9 9 9 9 10 10 10 10 10 10 10 10 10 10 10
27 27 24 22 20 18 17 16 16 15 14 13 12 10 9 7 7 6 7 8 8 8 8 8 8 8 9 9 9 10 10 10 10 10 9 9 9 9 9 9 9 9 10 10 10 10 10 10 10 10 11 11
28 27 24 23 21 18 18 18 17 17 15 14 12 10 9 8 7 6 6 7 7 8 9 10 9 9 10 10 9 10 10 10 10 10 9 9 9 9 9 10 10 10 10 10 10 10 11 11 11 11 11 11
28 27 25 24 21 19 19 19 18 17 16 15 14 12 10 8 7 6 6 7 8 9 10 10 10 10 11 10 7 7 9 10 11 10 9 9 9 9 9 10 10 10 10 11 11 11 11 11 11 11 11 12
28 28 27 26 23 22 21 20 19 18 18 17 15 13 11 9 8 7 6 7 9 10 10 10 11 10 10 10 8 7 9 10 10 10 9 9 9 9 10 10 10 11 11 11 11 11 12 12 12 12 12 12
29 30 29 27 25 23 22 21 20 20 19 18 17 15 12 11 10 9 8 8 9 10 10 11 11 12 11 11 10 10 10 11 10 10 9 9 10 10 10 11 11 11 11 12 12 12 12 12 12 12 12 12
31 31 31 29 27 25 24 22 21 21 20 19 18 15 13 13 12 11 9 9 10 11 11 12 12 13 13 12 12 12 12 12 11 11 10 10 10 11 11 11 12 12 12 12 12 12 13 12 12 12 12 12
34 34 33 32 30 28 26 24 23 22 22 21 19 17 15 16 15 13 11 10 11 12 12 12 13 13 14 13 13 13 13 13 12 11 11 11 11 11 12 12 12 12 12 13 13 13 13 13 13 13 13 12
36 36 36 34 33 30 28 25 24 23 23 23 21 19 18 18 18 15 12 12 12 13 13 12 13 13 14 14 14 14 14 13 13 12 12 12 12 12 12 13 13 13 13 13 13 13 13 13 13 13 13 13
39 39 38 36 35 32 29 27 25 25 24 24 23 21 20 21 20 17 14 14 13 13 13 13 12 13 14 14 15 15 15 14 13 13 12 12 12 12 13 13 13 13 14 14 13 13 13 13 13 13 13 13
42 41 40 38 36 34 31 28 27 26 26 25 24 23 22 23 22 18 16 15 14 14 14 13 12 12 13 14 15 15 15 14 14 13 13 13 13 13 13 13 14 14 14 14 14 13 13 13 13 13 13 13
43 43 42 39 37 36 33 30 28 28 29 27 25 24 24 24 23 20 17 16 16 14 14 13 12 12 12 13 14 15 15 15 14 14 14 14 14 14 14 14 14 14 14 14 14 14 14 13 13 13 13 13
44 44 43 41 39 37 35 32 29 30 31 30 27 25 24 25 24 22 19 18 17 16 15 14 13 12 12 12 13 15 15 15 15 15 15 14 14 14 14 15 15 15 15 14 14 14 14 14 14 14 14 14
46 45 44 43 41 39 37 34 31 31 32 31 29 26 25 26 26 23 20 19 19 17 16 14 14 13 12 12 13 14 15 16 16 15 15 15 15 15 15 15 15 15 15 15 15 15 15 15 15 15 15 15
48 47 46 45 43 41 39 37 34 33 32 33 32 29 27 27 27 25 22 21 20 19 17 16 15 14 13 12 13 14 15 16 16 16 15 15 15 15 16 16 16 16 16 16 15 15 15 15 15 15 15 15
50 49 48 46 45 44 43 40 37 35 33 33 34 32 29 29 29 27 24 22 21 20 19 17 17 16 14 13 13 14 14 15 16 16 16 16 16 16 17 17 17 17 17 17 16 16 16 16 16 16 16 16
51 50 49 48 47 47 46 42 39 37 34 33 35 34 31 31 31 28 25 23 21 21 20 19 18 17 16 14 14 14 14 14 15 16 17 16 17 17 17 17 17 17 17 17 17 17 17 17 17 17 17 17
51 51 50 50 49 48 48 45 41 39 36 34 35 36 34 33 32 30 26 24 22 22 22 20 19 18 17 16 15 15 14 14 15 16 17 17 17 17 17 17 17 17 17 17 17 17 17 17 18 18 18 18
51 50 51 51 50 49 49 47 44 42 39 36 36 37 36 34 34 32 28 25 24 24 23 22 21 20 19 18 17 16 15 15 15 16 17 18 18 18 18 18 18 18 18 18 18 18 18 18 18 19 19 19
49 50 51 51 51 51 51 50 47 46 43 38 38 39 37 34 35 36 32 29 27 26 26 24 24 22 21 20 19 18 17 17 17 17 17 17 18 18 19 19 19 18 18 18 19 19 19 19 19 19 19 19
47 49 50 51 52 52 52 51 49 48 46 41 39 41 40 36 35 36 33 32 31 29 28 27 26 25 23 22 21 20 20 19 18 17 17 17 17 18 19 20 19 19 19 19 19 20 20 20 20 20 21 21
45 47 49 51 52 53 53 52 51 51 50 46 42 42 43 41 38 36 34 34 35 32 30 29 28 27 25 24 23 22 21 21 20 19 18 17 17 17 18 20 20 20 19 19 20 20 21 21 21 21 22 23
45 46 48 50 51 52 53 52 52 53 51 47 45 42 43 44 42 39 39 38 37 35 32 32 30 28 27 25 24 24 24 24 23 22 21 20 19 19 19 20 21 21 20 20 20 19 18 19 22 23 24 24
44 46 47 48 49 49 48 49 50 52 50 48 47 44 44 47 44 42 42 40 39 39 36 34 31 31 30 28 27 27 27 27 26 25 24 23 22 21 21 22 22 22 22 21 20 18 15 14 15 20 25 27
44 44 46 46 47 48 48 48 48 49 50 50 50 47 45 47 47 46 44 40 40 40 40 37 34 34 33 30 29 29 29 29 28 27 26 25 24 24 24 24 23 22 23 23 21 18 16 14 12 14 17 22
42 43 45 46 46 47 47 47 47 48 49 50 50 49 46 46 47 49 47 45 43 42 41 38 36 37 35 33 32 32 32 32 30 29 28 27 26 26 26 25 25 24 23 24 24 20 15 13 13 13 12 13
38 42 43 44 46 47 47 47 48 49 50 50 49 47 46 45 46 48 47 46 46 46 43 39 39 41 39 36 35 34 34 33 33 32 31 29 29 29 27 26 28 28 26 24 25 26 24 20 16 13 12 13
36 39 41 43 46 47 48 48 49 50 49 49 48 47 46 44 45 47 47 45 45 47 46 42 43 46 42 38 37 37 36 36 34 33 32 32 31 31 29 29 31 31 28 28 28 28 29 29 27 21 17 16

ECMWFFLT2_850_spd_132.txt.gz
Wind_Speed
24 22 21 23 20 14 12 15 14 12 11 8 6 5 6 5 5 3 2 5 8 9 9 9 10 10 11 11 11 10 11 9 9 10 9 9 11 11 15 20 19 19 18 17 16 15 14 11 10 14 16 16
25 24 24 24 21 17 15 16 15 13 11 9 8 5 4 4 4 1 0 0 1 3 4 5 7 9 10 11 10 10 10 9 8 8 7 8 11 13 17 19 18 18 17 16 16 14 13 11 10 12 14 16
27 26 27 26 23 21 18 18 18 15 13 11 11 8 7 6 3 2 2 2 2 2 1 2 4 7 9 10 10 10 10 9 7 6 6 9 13 14 16 17 17 17 17 16 15 14 13 11 12 12 15 17
28 28 29 27 24 23 21 21 20 17 16 15 14 12 11 9 8 7 5 5 4 3 2 2 3 5 8 8 8 8 7 7 6 5 7 11 14 14 15 15 15 15 16 16 15 14 13 14 14 14 16 16
28 29 29 25 24 24 22 21 21 19 17 16 14 13 13 13 12 11 9 8 6 4 3 3 3 3 6 6 6 5 4 4 5 5 7 13 15 14 15 15 16 16 15 15 15 15 15 16 16 15 17 16
30 30 28 26 27 26 24 23 22 21 18 16 15 14 15 14 13 11 11 9 8 6 5 4 3 3 5 5 5 4 6 5 5 5 6 13 15 14 15 15 16 16 16 15 15 16 16 16 16 16 17 17
33 34 30 29 30 28 26 25 25 23 20 18 16 15 16 14 13 11 9 8 8 8 9 8 6 6 6 7 7 6 7 7 8 7 5 11 13 14 14 15 16 16 16 16 16 17 17 16 16 16 17 18
34 35 33 32 31 30 29 27 26 24 21 20 18 16 16 15 14 12 11 10 10 9 11 11 10 10 10 10 10 9 10 10 11 8 8 12 13 14 15 16 17 16 17 17 18 18 18 17 17 17 18 19
33 34 34 34 33 32 30 28 26 24 22 21 19 18 17 15 14 13 13 13 13 13 13 13 13 14 15 15 14 13 13 14 13 11 12 14 15 16 17 18 18 18 18 18 19 19 18 18 19 19 19 20
32 33 35 37 36 34 31 29 27 25 25 23 20 19 18 16 15 14 13 13 13 13 13 13 14 15 17 17 15 14 15 16 15 14 14 16 17 18 18 19 18 19 19 20 20 20 19 20 21 21 21 21
33 33 37 39 38 36 33 30 29 28 26 23 20 18 18 17 17 17 16 15 13 12 11 12 14 15 17 17 14 14 15 16 16 16 16 17 17 18 18 18 19 19 19 20 20 20 20 21 22 23 22 22
35 35 36 38 36 34 33 32 30 28 24 22 21 19 19 19 18 18 17 17 15 13 12 13 14 15 16 16 14 14 16 16 17 17 17 18 18 18 18 18 19 19 19 19 19 19 20 21 22 23 23 23
34 36 36 36 35 33 32 28 26 26 25 25 24 21 21 21 21 20 19 18 17 15 14 14 15 15 16 15 15 15 16 16 17 18 18 18 18 18 18 18 19 19 19 19 19 20 20 21 22 22 23 23
35 36 38 40 38 35 30 25 25 27 28 29 27 23 23 24 23 21 20 19 17 15 15 15 15 15 16 16 16 17 16 16 17 19 18 18 18 18 18 18 18 19 19 20 20 20 21 21 22 22 22 23
38 37 39 42 39 36 34 30 29 30 31 31 29 26 24 25 25 23 22 21 17 16 16 17 16 15 16 17 17 17 16 15 17 19 19 18 18 18 18 19 18 19 20 20 20 20 21 21 22 22 22 23
35 38 40 40 39 39 39 37 35 34 34 33 31 29 27 26 27 25 24 23 19 18 18 18 16 16 16 17 17 17 16 16 18 20 20 19 19 19 19 19 19 19 20 19 20 20 21 22 22 22 23 23
30 37 40 39 40 42 42 40 38 36 36 35 33 32 30 28 28 27 26 24 21 19 20 19 18 17 17 17 17 17 17 17 19 21 21 21 20 20 20 19 19 20 20 20 20 20 21 22 22 22 23 23
27 32 38 39 40 44 45 43 40 38 38 38 37 36 33 31 30 29 27 25 22 21 21 21 20 19 18 18 18 18 18 18 20 21 22 22 21 21 21 20 19 20 20 20 20 21 21 21 22 22 22 22
26 29 34 37 40 45 47 45 44 41 41 41 40 39 36 34 34 31 28 26 24 23 23 24 23 21 19 18 19 19 19 19 20 22 23 23 22 22 22 21 20 20 21 21 20 21 21 21 22 21 22 22
24 26 29 34 40 45 46 45 46 45 46 45 43 43 40 38 38 34 30 28 26 26 25 26 25 23 21 20 20 19 19 20 21 23 24 24 24 24 23 23 22 21 21 21 21 21 21 21 22 22 23 23
24 25 26 31 37 41 42 43 46 47 48 46 44 46 43 39 37 34 31 30 28 28 27 27 27 25 24 22 21 20 20 21 22 23 24 24 25 25 24 24 24 22 22 22 21 21 21 22 22 22 23 23
24 26 26 26 29 33 36 40 44 45 46 47 45 45 43 40 37 35 35 33 31 30 28 28 29 27 26 25 23 23 22 22 23 23 23 24 25 26 25 25 24 23 22 22 22 21 22 22 22 22 23 23
24 25 26 27 26 27 30 34 40 43 45 46 46 46 46 44 41 39 38 35 33 33 31 30 30 30 29 27 27 26 24 25 25 24 23 23 24 25 25 24 23 22 22 22 22 22 22 22 21 22 23 24
22 24 26 28 28 26 26 28 34 41 45 46 46 48 47 46 44 42 40 38 37 36 35 32 32 33 32 31 30 29 27 27 26 24 23 22 23 24 25 24 23 23 23 23 22 22 21 21 22 23 24 25
12 18 24 27 28 27 25 25 29 37 45 47 46 46 46 45 44 43 41 41 41 40 37 35 35 36 36 34 33 31 29 27 25 23 22 22 23 24 25 26 25 25 25 24 24 23 22 22 23 24 25 26
5 9 15 22 27 27 24 24 27 32 39 44 46 47 48 47 46 45 44 44 44 42 40 39 38 39 38 36 34 32 30 29 27 25 24 24 25 25 26 26 26 27 27 26 26 24 23 23 23 24 24 25
7 8 9 12 19 23 24 27 28 28 32 39 44 45 47 47 46 45 46 46 46 44 43 43 42 41 40 37 35 34 34 33 31 30 28 27 27 26 26 26 27 28 28 27 26 23 22 23 23 23 26 27
12 13 12 11 12 15 18 22 26 28 31 34 37 39 42 45 45 45 46 48 48 47 46 45 44 43 41 38 37 37 37 37 35 33 32 30 30 29 29 29 29 29 28 27 26 24 22 20 19 21 24 27
14 16 17 17 15 15 15 15 19 26 32 34 35 36 36 38 39 39 41 44 47 49 48 47 45 45 43 41 40 41 40 39 37 36 34 34 33 32 31 30 30 30 29 29 29 28 24 19 18 21 20 19
16 16 16 17 16 15 15 13 13 18 26 33 36 37 35 36 37 37 36 38 43 46 47 49 48 47 47 45 44 44 43 42 40 39 37 36 36 35 34 32 31 31 30 29 29 29 28 24 22 22 19 17
16 16 15 15 15 15 15 13 10 11 16 22 29 35 36 36 38 38 36 36 40 43 46 48 50 50 50 49 47 45 44 45 44 42 40 39 38 37 36 35 35 32 29 30 31 30 30 29 26 21 20 21

ECMWFFLT2_850_spd_135.txt.gz
Wind_Speed
27 28 30 29 25 18 16 15 14 14 14 14 10 9 9 9 9 8 7 6 8 12 12 12 15 15 12 12 12 10 12 15 14 15 14 13 14 14 19 25 24 21 19 19 20 19 16 16 18 16 16 16
27 29 32 30 25 17 16 16 15 14 14 15 11 10 9 9 9 8 8 7 6 6 7 10 13 14 14 13 12 9 10 11 11 12 12 11 11 15 22 24 23 21 19 19 19 18 17 17 18 16 16 16
29 30 29 27 24 19 18 19 19 17 17 16 13 12 10 8 8 8 9 9 8 5 4 6 8 11 13 12 11 10 8 5 4 5 7 9 10 16 22 22 22 22 20 19 18 18 16 17 18 16 15 14
31 29 25 25 24 22 21 20 20 19 19 17 14 13 11 11 11 11 10 10 10 7 6 5 5 7 9 9 8 8 5 2 1 0 2 7 12 18 20 19 21 21 20 19 18 17 15 16 17 16 14 13
28 26 24 26 26 24 22 21 22 22 21 18 15 15 14 14 15 14 14 13 12 9 8 7 6 6 8 9 7 4 3 1 1 1 1 7 13 16 18 18 18 19 19 19 18 16 15 15 17 17 15 13
26 26 27 29 29 25 24 24 25 25 22 18 16 17 18 17 17 17 17 16 14 12 10 9 8 7 7 9 8 5 3 2 2 1 2 7 11 12 15 17 17 17 17 17 18 17 15 15 17 18 15 14
24 27 30 31 30 28 28 28 28 27 24 20 19 19 19 20 19 17 17 16 15 12 10 9 8 7 7 7 7 6 4 3 4 2 1 6 9 11 13 15 15 16 16 17 18 17 17 17 18 18 16 15
24 25 30 31 31 31 31 31 30 29 26 23 22 21 20 20 19 17 17 17 16 13 11 10 9 9 9 8 8 8 6 5 5 4 3 6 9 11 13 15 16 16 17 18 18 19 19 18 19 19 17 16
25 25 29 32 33 34 34 33 32 30 27 25 23 22 21 20 19 18 19 20 19 17 15 14 13 13 12 11 11 10 9 8 7 7 6 8 10 12 14 16 17 17 18 18 18 19 20 19 19 20 19 18
25 26 29 33 37 37 36 34 32 30 28 26 24 22 21 20 19 19 20 21 21 20 19 18 17 17 15 13 13 12 12 11 10 10 10 10 12 13 15 16 17 18 18 18 18 18 19 19 19 20 20 19
26 27 30 34 38 37 35 34 32 32 31 28 25 22 21 20 20 20 21 21 21 21 20 20 20 20 18 17 16 16 16 16 15 14 13 13 14 14 16 17 18 18 18 18 18 18 19 19 19 21 21 21
25 29 32 33 37 38 37 37 35 35 32 28 24 22 21 20 19 19 20 20 20 20 20 20 20 20 20 20 19 20 20 19 18 17 17 17 17 16 17 18 19 19 19 19 19 19 20 21 21 22 23 22
21 28 34 35 37 40 40 39 37 36 32 27 24 22 21 19 19 19 19 20 21 20 19 19 19 19 20 20 21 22 22 21 19 19 19 19 18 18 19 20 21 21 21 21 21 21 22 22 23 24 24 24
18 24 32 36 38 40 41 42 40 37 32 27 25 23 21 20 20 19 19 20 22 22 20 19 19 19 19 19 20 21 22 21 20 20 20 20 19 20 20 21 22 22 22 23 23 23 23 24 24 25 26 25
18 20 27 34 38 41 42 42 39 37 34 30 27 26 25 25 24 23 21 21 23 23 22 21 20 20 20 20 20 21 21 20 20 20 20 20 21 21 21 22 22 22 23 23 23 24 24 25 25 26 27 26
20 17 19 27 34 37 40 43 40 39 37 32 29 29 29 28 28 27 25 24 25 25 24 23 21 21 21 21 20 20 20 19 19 19 19 20 21 22 22 22 22 23 23 23 23 24 24 25 25 26 27 27
22 19 14 18 28 36 38 41 42 41 38 34 32 32 30 30 30 30 28 26 26 27 27 25 23 22 22 21 20 20 20 20 20 20 20 21 22 22 23 23 23 24 24 23 23 24 24 24 25 25 26 27
20 20 16 13 21 33 39 40 43 41 37 35 36 36 34 33 33 32 29 28 28 29 29 27 25 24 24 22 20 21 21 20 21 21 21 21 22 23 23 23 23 24 24 24 24 24 24 24 24 25 26 27
21 20 17 13 14 23 35 42 43 40 38 39 41 40 37 36 35 33 30 29 29 31 31 29 27 26 25 24 22 21 21 21 21 21 21 21 22 22 23 23 23 23 23 23 23 24 24 24 24 24 25 26
20 21 18 15 13 15 23 36 42 41 41 43 44 42 40 38 37 35 33 32 32 33 32 31 29 27 26 26 24 22 22 22 22 22 22 21 22 22 23 24 23 23 23 22 23 23 23 23 24 24 25 26
16 18 18 18 15 13 16 25 36 41 42 43 44 43 41 41 40 38 35 36 36 35 34 33 31 29 28 28 26 24 23 23 22 22 22 23 23 23 24 24 25 25 24 23 23 23 23 23 24 24 25 25
10 15 18 18 18 18 16 18 26 36 41 41 41 42 42 42 42 41 40 39 38 36 35 35 33 31 30 30 29 26 25 24 23 23 23 24 24 24 25 25 26 26 25 24 23 23 23 24 24 24 24 24
3 9 13 14 15 19 21 20 22 29 33 33 34 38 41 42 42 43 42 42 40 36 37 38 36 34 33 33 31 29 27 26 25 25 25 25 24 24 25 25 25 25 25 24 23 23 24 24 24 24 24 24
3 2 4 6 8 10 15 20 23 26 25 23 25 29 34 38 40 42 43 43 41 39 41 41 38 37 36 35 34 32 31 29 28 27 26 26 25 25 25 25 25 25 25 24 23 23 23 23 23 24 25 25
9 8 6 5 5 6 8 13 18 23 23 19 19 22 25 31 36 42 45 44 44 43 43 42 40 39 38 37 37 35 34 31 29 28 27 26 26 26 26 27 27 27 26 26 25 25 24 24 25 25 26 27
13 14 14 12 12 12 11 9 10 14 18 20 21 22 23 26 31 39 45 45 45 45 44 44 43 42 40 39 40 38 36 34 32 30 29 29 29 28 28 28 29 29 29 29 29 29 27 25 25 26 27 28
15 16 17 16 15 14 13 11 9 8 10 13 18 22 24 25 28 35 43 44 44 45 45 46 45 44 42 42 42 40 39 39 37 34 33 32 31 30 30 29 29 31 31 31 30 28 26 26 25 25 27 30
16 17 17 18 17 16 13 10 10 8 6 6 9 15 20 24 28 32 37 39 40 42 45 47 46 46 45 44 44 42 41 41 41 39 36 34 33 33 33 32 31 31 32 33 32 28 25 23 21 23 28 32
21 19 17 18 19 20 18 15 15 14 11 8 7 9 14 19 24 29 32 35 37 41 44 47 47 47 47 46 46 45 43 43 42 41 39 37 36 36 35 34 33 33 33 34 34 32 27 20 20 26 30 30
25 24 23 22 19 17 19 20 20 19 16 14 12 10 11 15 18 22 26 31 34 38 41 45 46 47 48 48 47 47 45 44 43 42 41 40 39 38 37 35 35 35 35 35 35 35 33 26 25 29 29 27
24 24 24 25 24 21 19 20 21 20 20 19 17 15 13 14 15 16 19 23 28 32 37 41 44 46 47 48 48 48 47 46 45 44 43 43 42 40 39 37 38 37 35 36 37 36 36 34 31 28 27 29

ECMWFFLT2_850_spd_141.txt.gz
Wind_Speed
20 22 23 23 24 28 35 42 41 40 38 31 27 23 20 17 13 13 12 10 11 10 9 8 7 12 16 19 21 20 19 17 17 15 15 17 19 21 22 24 25 22 21 21 22 21 21 21 20 18 15 14
21 22 24 25 24 26 30 34 35 34 30 25 19 16 14 13 14 13 12 11 12 11 10 12 12 14 16 20 22 21 21 19 19 18 17 17 20 21 20 25 26 22 20 20 20 20 20 19 18 16 14 13
20 22 23 20 13 16 23 25 26 24 19 14 12 13 13 14 13 11 11 11 12 12 12 14 15 15 16 20 21 19 18 18 19 19 18 18 19 19 20 26 26 23 20 19 18 18 17 17 17 15 14 14
18 20 14 10 10 16 20 21 23 20 14 11 12 13 13 13 13 12 13 12 12 12 11 11 10 11 14 18 18 15 14 15 16 17 18 16 16 17 23 28 28 25 21 19 18 17 16 16 16 15 15 14
17 18 11 11 12 15 20 21 20 16 15 14 15 14 13 13 13 13 13 13 13 11 10 9 9 11 14 16 16 16 14 14 15 14 15 14 13 16 25 30 29 27 23 21 19 18 17 16 16 15 14 13
16 16 16 17 20 23 24 21 19 18 17 16 17 16 15 15 14 14 14 14 14 12 12 13 14 15 16 16 17 17 14 13 13 12 13 14 12 16 27 31 29 28 26 24 22 20 19 18 17 16 15 14
15 13 17 22 23 26 28 25 22 22 20 17 18 19 18 17 16 16 15 15 14 14 16 17 18 18 18 18 17 18 16 13 12 12 11 11 10 15 26 31 29 27 26 25 24 22 21 19 18 17 16 15
13 13 14 21 25 25 28 29 27 26 24 21 20 21 20 18 18 17 17 16 16 17 19 19 21 20 20 21 20 19 18 16 15 14 11 10 11 14 22 28 28 28 27 26 25 24 22 21 19 18 18 16
10 12 13 14 25 28 29 30 30 30 27 24 23 23 22 20 19 18 18 19 19 20 20 21 22 21 21 24 24 21 19 18 16 15 13 13 13 14 19 23 24 25 25 25 25 23 22 22 20 19 18 17
8 10 12 12 15 24 30 31 32 34 31 27 26 25 24 22 20 20 20 21 21 21 22 22 23 22 22 24 24 21 20 19 16 15 14 15 17 17 19 20 19 20 21 22 22 22 22 21 20 19 19 17
11 9 10 12 12 15 24 32 35 38 36 30 29 28 27 25 22 21 21 21 21 20 22 23 23 23 23 24 23 20 20 19 16 14 15 18 20 20 20 20 19 18 18 19 19 19 20 20 20 19 18 18
15 12 11 13 13 13 16 23 29 37 38 32 30 30 29 26 22 21 21 21 21 21 22 24 25 25 25 25 23 21 19 18 16 15 16 20 22 21 21 21 21 20 19 19 18 18 18 19 19 18 17 17
16 17 15 14 15 14 14 15 20 29 37 31 30 31 30 27 24 24 25 25 25 23 24 26 27 26 26 26 24 22 20 19 18 17 17 20 22 21 21 21 21 22 22 21 20 19 18 18 19 18 17 17
17 21 20 17 17 16 15 13 16 23 33 32 32 33 33 30 28 27 27 27 27 25 25 27 28 29 28 27 25 24 22 20 19 18 17 20 21 21 22 22 22 22 23 23 22 21 20 20 20 19 18 18
17 21 22 21 19 14 15 14 14 20 32 37 37 37 35 33 32 30 29 29 29 27 24 23 27 29 30 29 27 26 25 22 20 20 18 18 20 20 22 23 23 24 24 25 24 23 22 21 21 19 19 19
14 18 20 19 19 15 13 15 13 15 25 35 40 39 37 37 37 33 30 30 31 28 23 22 27 29 29 29 28 27 27 24 23 23 21 20 20 21 22 23 24 24 25 26 26 25 24 23 23 21 20 20
12 14 16 16 15 13 11 12 14 13 15 25 36 41 39 40 39 33 30 30 30 28 25 25 28 29 29 30 30 29 28 27 26 26 25 23 23 23 24 25 25 25 25 27 27 27 27 26 25 24 23 22
12 11 14 15 15 12 11 10 12 14 15 22 32 39 40 40 38 34 32 33 33 31 29 28 29 28 29 31 32 32 30 30 29 28 27 25 24 24 25 27 27 27 27 28 29 29 29 28 28 27 26 25
11 11 12 14 15 13 11 12 13 15 17 22 29 34 37 39 39 38 36 36 35 35 32 30 30 29 29 31 32 32 32 31 30 29 27 26 24 24 25 26 28 28 28 29 29 29 30 30 30 30 29 29
12 11 10 11 13 12 9 10 12 15 18 21 24 28 31 34 37 39 40 39 37 38 35 32 31 30 31 32 32 32 32 32 31 30 29 27 25 24 24 25 26 27 28 28 29 29 30 31 31 32 32 32
15 14 12 11 12 12 9 6 6 8 14 19 22 25 27 30 30 31 36 39 39 39 36 33 33 33 34 34 33 32 32 32 33 32 31 29 27 26 25 24 25 25 26 27 27 28 29 30 31 32 33 33
18 17 15 14 13 12 12 10 7 5 4 11 15 19 24 27 26 25 28 33 36 38 37 37 36 35 36 35 35 34 33 32 34 35 33 31 29 28 26 25 24 24 24 24 25 27 28 29 30 31 32 33
21 19 16 16 15 11 11 13 12 11 8 3 4 8 14 20 23 22 23 26 29 33 36 39 38 37 37 38 38 36 34 33 34 36 36 34 32 30 28 27 25 24 23 23 24 26 27 28 29 30 31 33
27 24 21 20 21 17 14 14 12 12 12 11 8 6 5 10 15 17 20 23 26 28 30 34 37 39 40 40 39 37 36 34 34 36 37 36 33 31 30 29 27 25 23 22 24 26 27 28 29 30 32 33
36 34 32 29 27 25 23 19 15 13 13 12 12 12 11 7 6 9 12 17 22 24 26 28 31 35 39 39 39 37 36 36 36 36 37 37 35 33 32 31 29 26 24 23 24 25 27 29 30 30 31 33
40 38 37 34 30 27 25 23 20 18 16 15 14 14 14 11 9 8 7 9 14 18 21 24 26 28 32 36 38 38 38 39 39 37 37 38 37 35 34 33 31 29 28 26 25 25 26 29 31 31 32 33
38 38 36 35 33 29 26 24 22 20 18 16 15 15 16 14 12 12 12 11 9 10 13 17 21 23 26 30 34 37 39 40 40 40 40 40 38 37 36 35 33 33 31 28 26 24 25 27 28 30 34 35
36 35 34 34 33 32 30 28 25 21 19 17 16 16 17 17 16 15 15 15 13 11 10 11 13 17 21 23 27 32 36 38 39 40 41 40 39 38 38 38 36 34 33 31 28 25 25 24 22 26 31 34
34 34 33 33 33 33 33 33 33 30 28 26 23 21 19 19 20 18 16 16 15 13 12 12 11 12 14 16 19 23 29 34 36 37 38 39 40 40 40 41 39 36 35 35 32 29 28 24 22 24 26 28
31 32 33 34 34 35 35 35 36 35 34 33 29 25 20 18 18 19 18 17 16 14 13 12 12 12 12 13 14 15 18 24 29 33 36 37 39 40 41 41 41 39 38 37 35 34 34 31 27 25 22 23
29 29 31 32 33 33 33 32 32 31 30 30 29 26 22 18 16 16 16 17 16 15 14 13 12 12 12 12 13 14 14 15 18 24 29 33 36 38 39 40 41 41 39 37 38 38 38 38 36 31 25 23